Wetterdaten: Sonntag, 07.08.2022
Datum Zeit Temp. Aussen Temp. o. S. Temp +5cm Feuchte Auss Luftdruck Regen Sonnenschein Regendauer Solar Windben Empfang
07.08.2022 00:00 16,8 C 15,0 C 11,7 C 74 % 1027,0 hPa 0,0 l/m 0 min 0 min 0 W/m 0,0 km/h (0 Bft) 100,00 %
07.08.2022 00:02 16,8 C 15,0 C 11,7 C 74 % 1026,9 hPa 0,0 l/m 0 min 0 min 0 W/m 0,0 km/h (0 Bft) 12,50 %
07.08.2022 00:04 16,7 C 15,0 C 11,7 C 74 % 1027,0 hPa 0,0 l/m 0 min 0 min 0 W/m 0,0 km/h (0 Bft) 82,93 %
07.08.2022 00:08 16,6 C 15,0 C 11,7 C 75 % 1027,0 hPa 0,0 l/m 0 min 0 min 0 W/m 0,0 km/h (0 Bft) 100,00 %
07.08.2022 00:10 16,5 C 14,4 C 11,1 C 75 % 1027,0 hPa 0,0 l/m 0 min 0 min 0 W/m 0,0 km/h (0 Bft) 97,87 %
07.08.2022 00:12 16,4 C 14,4 C 11,1 C 75 % 1027,0 hPa 0,0 l/m 0 min 0 min 0 W/m 0,0 km/h (0 Bft) 97,83 %
07.08.2022 00:14 16,3 C 14,4 C 11,7 C 75 % 1027,0 hPa 0,0 l/m 0 min 0 min 0 W/m 0,0 km/h (0 Bft) 97,87 %
07.08.2022 00:16 16,3 C 14,4 C 11,1 C 75 % 1026,9 hPa 0,0 l/m 0 min 0 min 0 W/m 0,0 km/h (0 Bft) 97,87 %
07.08.2022 00:18 16,2 C 14,4 C 11,1 C 76 % 1026,9 hPa 0,0 l/m 0 min 0 min 0 W/m 0,0 km/h (0 Bft) 97,87 %
07.08.2022 00:20 16,2 C 14,4 C 11,1 C 76 % 1027,0 hPa 0,0 l/m 0 min 0 min 0 W/m 0,0 km/h (0 Bft) 95,74 %
07.08.2022 00:22 16,1 C 14,4 C 11,1 C 76 % 1026,9 hPa 0,0 l/m 0 min 0 min 0 W/m 0,0 km/h (0 Bft) 97,87 %
07.08.2022 00:24 16,1 C 14,4 C 11,1 C 77 % 1026,9 hPa 0,0 l/m 0 min 0 min 0 W/m 0,0 km/h (0 Bft) 97,83 %
07.08.2022 00:26 16,0 C 14,4 C 11,1 C 77 % 1026,9 hPa 0,0 l/m 0 min 0 min 0 W/m 0,0 km/h (0 Bft) 97,87 %
07.08.2022 00:28 15,9 C 13,9 C 11,1 C 77 % 1026,8 hPa 0,0 l/m 0 min 0 min 0 W/m 0,0 km/h (0 Bft) 97,87 %
07.08.2022 00:30 15,9 C 13,9 C 10,6 C 77 % 1026,8 hPa 0,0 l/m 0 min 0 min 0 W/m 0,0 km/h (0 Bft) 95,74 %
07.08.2022 00:32 15,8 C 13,9 C 10,6 C 78 % 1026,8 hPa 0,0 l/m 0 min 0 min 0 W/m 0,0 km/h (0 Bft) 97,87 %
07.08.2022 00:34 15,8 C 13,9 C 11,1 C 78 % 1026,8 hPa 0,0 l/m 0 min 0 min 0 W/m 0,0 km/h (0 Bft) 97,87 %
07.08.2022 00:36 15,7 C 13,9 C 11,1 C 78 % 1026,8 hPa 0,0 l/m 0 min 0 min 0 W/m 0,0 km/h (0 Bft) 97,83 %
07.08.2022 00:38 15,6 C 13,9 C 11,1 C 78 % 1026,8 hPa 0,0 l/m 0 min 0 min 0 W/m 0,0 km/h (0 Bft) 95,74 %
07.08.2022 00:40 15,6 C 13,9 C 10,6 C 78 % 1026,8 hPa 0,0 l/m 0 min 0 min 0 W/m 0,0 km/h (0 Bft) 97,87 %
07.08.2022 00:42 15,6 C 13,9 C 10,6 C 78 % 1026,7 hPa 0,0 l/m 0 min 0 min 0 W/m 0,0 km/h (0 Bft) 97,87 %
07.08.2022 00:44 15,5 C 13,9 C 10,6 C 79 % 1026,8 hPa 0,0 l/m 0 min 0 min 0 W/m 0,0 km/h (0 Bft) 100,00 %
07.08.2022 00:46 15,4 C 13,9 C 10,6 C 79 % 1026,7 hPa 0,0 l/m 0 min 0 min 0 W/m 0,0 km/h (0 Bft) 100,00 %
07.08.2022 00:48 15,4 C 13,9 C 10,6 C 79 % 1026,8 hPa 0,0 l/m 0 min 0 min 0 W/m 0,0 km/h (0 Bft) 100,00 %
07.08.2022 00:50 15,3 C 13,9 C 10,6 C 78 % 1026,7 hPa 0,0 l/m 0 min 0 min 0 W/m 0,0 km/h (0 Bft) 97,87 %
07.08.2022 00:52 15,2 C 13,9 C 10,6 C 78 % 1026,8 hPa 0,0 l/m 0 min 0 min 0 W/m 0,0 km/h (0 Bft) 97,87 %
07.08.2022 00:54 15,2 C 13,9 C 10,6 C 78 % 1026,7 hPa 0,0 l/m 0 min 0 min 0 W/m 0,0 km/h (0 Bft) 93,62 %
07.08.2022 00:56 15,1 C 13,9 C 10,6 C 78 % 1026,7 hPa 0,0 l/m 0 min 0 min 0 W/m 0,0 km/h (0 Bft) 97,87 %
07.08.2022 00:58 15,1 C 13,9 C 10,6 C 79 % 1026,7 hPa 0,0 l/m 0 min 0 min 0 W/m 0,0 km/h (0 Bft) 97,87 %
07.08.2022 01:00 15,1 C 13,9 C 10,6 C 79 % 1026,7 hPa 0,0 l/m 0 min 0 min 0 W/m 0,0 km/h (0 Bft) 97,83 %
07.08.2022 01:02 15,1 C 13,9 C 10,6 C 79 % 1026,7 hPa 0,0 l/m 0 min 0 min 0 W/m 0,0 km/h (0 Bft) 97,92 %
07.08.2022 01:04 15,0 C 13,3 C 10,6 C 80 % 1026,7 hPa 0,0 l/m 0 min 0 min 0 W/m 0,0 km/h (0 Bft) 97,83 %
07.08.2022 01:06 15,0 C 13,3 C 10,6 C 80 % 1026,7 hPa 0,0 l/m 0 min 0 min 0 W/m 0,0 km/h (0 Bft) 95,74 %
07.08.2022 01:08 14,9 C 13,3 C 10,0 C 80 % 1026,7 hPa 0,0 l/m 0 min 0 min 0 W/m 0,0 km/h (0 Bft) 97,87 %
07.08.2022 01:10 14,9 C 13,3 C 10,0 C 80 % 1026,7 hPa 0,0 l/m 0 min 0 min 0 W/m 0,0 km/h (0 Bft) 97,87 %
07.08.2022 01:12 14,9 C 13,3 C 10,0 C 81 % 1026,7 hPa 0,0 l/m 0 min 0 min 0 W/m 0,0 km/h (0 Bft) 97,87 %
07.08.2022 01:14 14,8 C 13,3 C 10,0 C 81 % 1026,7 hPa 0,0 l/m 0 min 0 min 0 W/m 0,0 km/h (0 Bft) 100,00 %
07.08.2022 01:16 14,8 C 13,3 C 10,0 C 81 % 1026,7 hPa 0,0 l/m 0 min 0 min 0 W/m 0,0 km/h (0 Bft) 100,00 %
07.08.2022 01:18 14,7 C 13,3 C 10,0 C 81 % 1026,7 hPa 0,0 l/m 0 min 0 min 0 W/m 0,0 km/h (0 Bft) 100,00 %
07.08.2022 01:20 14,7 C 13,3 C 10,0 C 81 % 1026,7 hPa 0,0 l/m 0 min 0 min 0 W/m 0,0 km/h (0 Bft) 100,00 %
07.08.2022 01:22 14,7 C 13,3 C 10,0 C 81 % 1026,7 hPa 0,0 l/m 0 min 0 min 0 W/m 0,0 km/h (0 Bft) 100,00 %
07.08.2022 01:24 14,6 C 13,3 C 10,0 C 82 % 1026,7 hPa 0,0 l/m 0 min 0 min 0 W/m 0,0 km/h (0 Bft) 100,00 %
07.08.2022 01:26 14,6 C 12,8 C 10,0 C 82 % 1026,6 hPa 0,0 l/m 0 min 0 min 0 W/m 0,0 km/h (0 Bft) 100,00 %
07.08.2022 01:28 14,6 C 13,3 C 10,0 C 82 % 1026,6 hPa 0,0 l/m 0 min 0 min 0 W/m 0,0 km/h (0 Bft) 100,00 %
07.08.2022 01:30 14,5 C 13,3 C 10,0 C 82 % 1026,7 hPa 0,0 l/m 0 min 0 min 0 W/m 3,2 km/h (1 Bft) 100,00 %
07.08.2022 01:32 14,5 C 13,3 C 10,0 C 82 % 1026,7 hPa 0,0 l/m 0 min 0 min 0 W/m 0,0 km/h (0 Bft) 100,00 %
07.08.2022 01:34 14,4 C 13,3 C 10,0 C 82 % 1026,6 hPa 0,0 l/m 0 min 0 min 0 W/m 0,0 km/h (0 Bft) 100,00 %
07.08.2022 01:36 14,4 C 13,3 C 10,0 C 82 % 1026,6 hPa 0,0 l/m 0 min 0 min 0 W/m 0,0 km/h (0 Bft) 100,00 %
07.08.2022 01:38 14,3 C 13,3 C 10,0 C 82 % 1026,6 hPa 0,0 l/m 0 min 0 min 0 W/m 0,0 km/h (0 Bft) 100,00 %
07.08.2022 01:40 14,3 C 12,8 C 10,0 C 82 % 1026,6 hPa 0,0 l/m 0 min 0 min 0 W/m 0,0 km/h (0 Bft) 100,00 %
07.08.2022 01:42 14,3 C 12,8 C 10,0 C 82 % 1026,6 hPa 0,0 l/m 0 min 0 min 0 W/m 0,0 km/h (0 Bft) 100,00 %
07.08.2022 01:44 14,3 C 12,8 C 10,0 C 82 % 1026,6 hPa 0,0 l/m 0 min 0 min 0 W/m 0,0 km/h (0 Bft) 100,00 %
07.08.2022 01:46 14,3 C 12,8 C 10,0 C 82 % 1026,7 hPa 0,0 l/m 0 min 0 min 0 W/m 0,0 km/h (0 Bft) 100,00 %
07.08.2022 01:48 14,3 C 12,8 C 10,0 C 82 % 1026,6 hPa 0,0 l/m 0 min 0 min 0 W/m 0,0 km/h (0 Bft) 100,00 %
07.08.2022 01:50 14,3 C 12,8 C 10,0 C 83 % 1026,6 hPa 0,0 l/m 0 min 0 min 0 W/m 0,0 km/h (0 Bft) 100,00 %
07.08.2022 01:52 14,3 C 12,8 C 10,0 C 83 % 1026,6 hPa 0,0 l/m 0 min 0 min 0 W/m 0,0 km/h (0 Bft) 100,00 %
07.08.2022 01:54 14,2 C 12,8 C 10,0 C 83 % 1026,6 hPa 0,0 l/m 0 min 0 min 0 W/m 0,0 km/h (0 Bft) 100,00 %
07.08.2022 01:56 14,1 C 12,8 C 10,0 C 82 % 1026,5 hPa 0,0 l/m 0 min 0 min 0 W/m 0,0 km/h (0 Bft) 100,00 %
07.08.2022 01:58 14,1 C 12,8 C 10,0 C 82 % 1026,5 hPa 0,0 l/m 0 min 0 min 0 W/m 0,0 km/h (0 Bft) 100,00 %
07.08.2022 02:00 14,0 C 12,8 C 10,0 C 82 % 1026,7 hPa 0,0 l/m 0 min 0 min 0 W/m 0,0 km/h (0 Bft) 100,00 %
07.08.2022 02:02 14,0 C 12,8 C 10,0 C 83 % 1026,7 hPa 0,0 l/m 0 min 0 min 0 W/m 3,2 km/h (1 Bft) 100,00 %
07.08.2022 02:04 13,9 C 12,8 C 10,0 C 83 % 1026,6 hPa 0,0 l/m 0 min 0 min 0 W/m 3,2 km/h (1 Bft) 97,87 %
07.08.2022 02:06 13,9 C 12,8 C 10,0 C 83 % 1026,6 hPa 0,0 l/m 0 min 0 min 0 W/m 3,2 km/h (1 Bft) 97,87 %
07.08.2022 02:08 13,9 C 12,8 C 10,0 C 83 % 1026,5 hPa 0,0 l/m 0 min 0 min 0 W/m 3,2 km/h (1 Bft) 100,00 %
07.08.2022 02:10 13,9 C 13,3 C 10,0 C 83 % 1026,5 hPa 0,0 l/m 0 min 0 min 0 W/m 3,2 km/h (1 Bft) 100,00 %
07.08.2022 02:12 13,9 C 13,3 C 10,0 C 83 % 1026,5 hPa 0,0 l/m 0 min 0 min 0 W/m 0,0 km/h (0 Bft) 100,00 %
07.08.2022 02:14 13,9 C 12,8 C 10,0 C 83 % 1026,5 hPa 0,0 l/m 0 min 0 min 0 W/m 0,0 km/h (0 Bft) 95,65 %
07.08.2022 02:16 13,9 C 12,8 C 10,0 C 83 % 1026,4 hPa 0,0 l/m 0 min 0 min 0 W/m 0,0 km/h (0 Bft) 97,87 %
07.08.2022 02:18 13,9 C 12,8 C 10,0 C 83 % 1026,5 hPa 0,0 l/m 0 min 0 min 0 W/m 0,0 km/h (0 Bft) 95,74 %
07.08.2022 02:20 13,9 C 12,8 C 9,4 C 83 % 1026,4 hPa 0,0 l/m 0 min 0 min 0 W/m 0,0 km/h (0 Bft) 95,74 %
07.08.2022 02:22 13,9 C 12,8 C 9,4 C 84 % 1026,4 hPa 0,0 l/m 0 min 0 min 0 W/m 0,0 km/h (0 Bft) 97,87 %
07.08.2022 02:24 13,8 C 12,8 C 9,4 C 84 % 1026,4 hPa 0,0 l/m 0 min 0 min 0 W/m 3,2 km/h (1 Bft) 93,62 %
07.08.2022 02:26 13,8 C 12,8 C 9,4 C 84 % 1026,4 hPa 0,0 l/m 0 min 0 min 0 W/m 3,2 km/h (1 Bft) 93,48 %
07.08.2022 02:28 13,8 C 12,8 C 9,4 C 83 % 1026,4 hPa 0,0 l/m 0 min 0 min 0 W/m 0,0 km/h (0 Bft) 91,49 %
07.08.2022 02:30 13,7 C 12,8 C 9,4 C 83 % 1026,4 hPa 0,0 l/m 0 min 0 min 0 W/m 0,0 km/h (0 Bft) 93,62 %
07.08.2022 02:32 13,7 C 12,8 C 9,4 C 83 % 1026,4 hPa 0,0 l/m 0 min 0 min 0 W/m 0,0 km/h (0 Bft) 91,49 %
07.08.2022 02:34 13,7 C 12,8 C 9,4 C 84 % 1026,3 hPa 0,0 l/m 0 min 0 min 0 W/m 0,0 km/h (0 Bft) 93,62 %
07.08.2022 02:36 13,7 C 12,8 C 9,4 C 83 % 1026,3 hPa 0,0 l/m 0 min 0 min 0 W/m 0,0 km/h (0 Bft) 93,62 %
07.08.2022 02:38 13,6 C 12,8 C 9,4 C 84 % 1026,3 hPa 0,0 l/m 0 min 0 min 0 W/m 0,0 km/h (0 Bft) 93,48 %
07.08.2022 02:40 13,6 C 12,2 C 9,4 C 84 % 1026,3 hPa 0,0 l/m 0 min 0 min 0 W/m 0,0 km/h (0 Bft) 93,62 %
07.08.2022 02:42 13,6 C 12,2 C 8,9 C 84 % 1026,3 hPa 0,0 l/m 0 min 0 min 0 W/m 0,0 km/h (0 Bft) 93,62 %
07.08.2022 02:44 13,6 C 12,2 C 8,9 C 84 % 1026,3 hPa 0,0 l/m 0 min 0 min 0 W/m 0,0 km/h (0 Bft) 91,49 %
07.08.2022 02:46 13,6 C 12,2 C 8,9 C 84 % 1026,2 hPa 0,0 l/m 0 min 0 min 0 W/m 0,0 km/h (0 Bft) 93,62 %
07.08.2022 02:48 13,6 C 12,2 C 8,9 C 84 % 1026,2 hPa 0,0 l/m 0 min 0 min 0 W/m 0,0 km/h (0 Bft) 95,74 %
07.08.2022 02:50 13,6 C 12,2 C 9,4 C 84 % 1026,2 hPa 0,0 l/m 0 min 0 min 0 W/m 0,0 km/h (0 Bft) 93,48 %
07.08.2022 02:52 13,5 C 12,2 C 9,4 C 84 % 1026,2 hPa 0,0 l/m 0 min 0 min 0 W/m 0,0 km/h (0 Bft) 97,87 %
07.08.2022 02:54 13,5 C 12,2 C 9,4 C 84 % 1026,2 hPa 0,0 l/m 0 min 0 min 0 W/m 0,0 km/h (0 Bft) 97,87 %
07.08.2022 02:56 13,4 C 12,2 C 9,4 C 84 % 1026,2 hPa 0,0 l/m 0 min 0 min 0 W/m 0,0 km/h (0 Bft) 95,74 %
07.08.2022 02:58 13,4 C 12,2 C 9,4 C 84 % 1026,1 hPa 0,0 l/m 0 min 0 min 0 W/m 0,0 km/h (0 Bft) 95,74 %
07.08.2022 03:00 13,4 C 12,2 C 9,4 C 84 % 1026,1 hPa 0,0 l/m 0 min 0 min 0 W/m 0,0 km/h (0 Bft) 97,87 %
07.08.2022 03:02 13,4 C 12,2 C 9,4 C 84 % 1026,0 hPa 0,0 l/m 0 min 0 min 0 W/m 0,0 km/h (0 Bft) 97,83 %
07.08.2022 03:04 13,3 C 12,2 C 9,4 C 84 % 1026,1 hPa 0,0 l/m 0 min 0 min 0 W/m 0,0 km/h (0 Bft) 95,74 %
07.08.2022 03:06 13,3 C 12,2 C 9,4 C 84 % 1026,1 hPa 0,0 l/m 0 min 0 min 0 W/m 0,0 km/h (0 Bft) 97,87 %
07.08.2022 03:08 13,3 C 12,2 C 9,4 C 85 % 1026,0 hPa 0,0 l/m 0 min 0 min 0 W/m 0,0 km/h (0 Bft) 95,74 %
07.08.2022 03:10 13,3 C 12,2 C 8,9 C 85 % 1026,1 hPa 0,0 l/m 0 min 0 min 0 W/m 0,0 km/h (0 Bft) 97,87 %
07.08.2022 03:12 13,3 C 12,2 C 8,9 C 85 % 1026,1 hPa 0,0 l/m 0 min 0 min 0 W/m 0,0 km/h (0 Bft) 95,74 %
07.08.2022 03:14 13,3 C 12,2 C 8,9 C 85 % 1026,0 hPa 0,0 l/m 0 min 0 min 0 W/m 0,0 km/h (0 Bft) 97,83 %
07.08.2022 03:16 13,2 C 12,2 C 8,9 C 85 % 1026,0 hPa 0,0 l/m 0 min 0 min 0 W/m 0,0 km/h (0 Bft) 97,87 %
07.08.2022 03:18 13,2 C 12,2 C 8,9 C 85 % 1026,0 hPa 0,0 l/m 0 min 0 min 0 W/m 0,0 km/h (0 Bft) 97,87 %
07.08.2022 03:20 13,2 C 11,7 C 8,9 C 85 % 1026,0 hPa 0,0 l/m 0 min 0 min 0 W/m 0,0 km/h (0 Bft) 95,74 %
07.08.2022 03:22 13,2 C 11,7 C 8,9 C 85 % 1026,0 hPa 0,0 l/m 0 min 0 min 0 W/m 0,0 km/h (0 Bft) 95,74 %
07.08.2022 03:24 13,1 C 11,7 C 8,9 C 85 % 1026,0 hPa 0,0 l/m 0 min 0 min 0 W/m 0,0 km/h (0 Bft) 95,74 %
07.08.2022 03:26 13,1 C 11,7 C 8,9 C 85 % 1026,0 hPa 0,0 l/m 0 min 0 min 0 W/m 0,0 km/h (0 Bft) 97,83 %
07.08.2022 03:28 13,1 C 11,7 C 8,9 C 85 % 1025,9 hPa 0,0 l/m 0 min 0 min 0 W/m 0,0 km/h (0 Bft) 97,87 %
07.08.2022 03:30 13,1 C 11,7 C 8,9 C 85 % 1025,9 hPa 0,0 l/m 0 min 0 min 0 W/m 0,0 km/h (0 Bft) 97,87 %
07.08.2022 03:32 13,0 C 11,7 C 8,9 C 85 % 1025,9 hPa 0,0 l/m 0 min 0 min 0 W/m 0,0 km/h (0 Bft) 97,87 %
07.08.2022 03:34 13,0 C 11,7 C 8,9 C 86 % 1026,0 hPa 0,0 l/m 0 min 0 min 0 W/m 3,2 km/h (1 Bft) 97,87 %
07.08.2022 03:36 12,9 C 11,7 C 8,9 C 86 % 1026,0 hPa 0,0 l/m 0 min 0 min 0 W/m 0,0 km/h (0 Bft) 100,00 %
07.08.2022 03:38 12,9 C 11,7 C 8,9 C 86 % 1026,0 hPa 0,0 l/m 0 min 0 min 0 W/m 0,0 km/h (0 Bft) 100,00 %
07.08.2022 03:40 12,9 C 11,7 C 8,9 C 86 % 1025,9 hPa 0,0 l/m 0 min 0 min 0 W/m 0,0 km/h (0 Bft) 100,00 %
07.08.2022 03:42 12,9 C 11,7 C 8,9 C 86 % 1025,9 hPa 0,0 l/m 0 min 0 min 0 W/m 0,0 km/h (0 Bft) 97,87 %
07.08.2022 03:44 12,9 C 11,7 C 8,9 C 86 % 1025,9 hPa 0,0 l/m 0 min 0 min 0 W/m 0,0 km/h (0 Bft) 100,00 %
07.08.2022 03:46 12,8 C 11,7 C 8,9 C 86 % 1025,9 hPa 0,0 l/m 0 min 0 min 0 W/m 3,2 km/h (1 Bft) 100,00 %
07.08.2022 03:48 12,8 C 11,7 C 8,9 C 86 % 1025,9 hPa 0,0 l/m 0 min 0 min 0 W/m 0,0 km/h (0 Bft) 100,00 %
07.08.2022 03:50 12,8 C 11,7 C 8,9 C 86 % 1025,9 hPa 0,0 l/m 0 min 0 min 0 W/m 0,0 km/h (0 Bft) 97,83 %
07.08.2022 03:52 12,8 C 11,7 C 8,9 C 87 % 1025,9 hPa 0,0 l/m 0 min 0 min 0 W/m 0,0 km/h (0 Bft) 100,00 %
07.08.2022 03:54 12,8 C 11,7 C 8,9 C 87 % 1025,9 hPa 0,0 l/m 0 min 0 min 0 W/m 0,0 km/h (0 Bft) 100,00 %
07.08.2022 03:56 12,8 C 11,7 C 8,9 C 87 % 1025,9 hPa 0,0 l/m 0 min 0 min 0 W/m 0,0 km/h (0 Bft) 97,87 %
07.08.2022 03:58 12,8 C 11,7 C 8,9 C 87 % 1025,8 hPa 0,0 l/m 0 min 0 min 0 W/m 0,0 km/h (0 Bft) 97,87 %
07.08.2022 04:00 12,7 C 11,7 C 8,9 C 87 % 1025,9 hPa 0,0 l/m 0 min 0 min 0 W/m 0,0 km/h (0 Bft) 95,65 %
07.08.2022 04:02 12,7 C 11,7 C 8,9 C 87 % 1025,9 hPa 0,0 l/m 0 min 0 min 0 W/m 0,0 km/h (0 Bft) 100,00 %
07.08.2022 04:04 12,7 C 11,7 C 8,9 C 87 % 1025,9 hPa 0,0 l/m 0 min 0 min 0 W/m 0,0 km/h (0 Bft) 95,74 %
07.08.2022 04:06 12,7 C 11,7 C 8,9 C 87 % 1025,9 hPa 0,0 l/m 0 min 0 min 0 W/m 0,0 km/h (0 Bft) 100,00 %
07.08.2022 04:08 12,7 C 11,7 C 8,9 C 87 % 1025,9 hPa 0,0 l/m 0 min 0 min 0 W/m 0,0 km/h (0 Bft) 100,00 %
07.08.2022 04:10 12,6 C 11,7 C 8,9 C 87 % 1025,9 hPa 0,0 l/m 0 min 0 min 0 W/m 0,0 km/h (0 Bft) 100,00 %
07.08.2022 04:12 12,6 C 11,7 C 8,9 C 87 % 1025,9 hPa 0,0 l/m 0 min 0 min 0 W/m 0,0 km/h (0 Bft) 97,87 %
07.08.2022 04:14 12,6 C 11,7 C 8,9 C 87 % 1025,8 hPa 0,0 l/m 0 min 0 min 0 W/m 3,2 km/h (1 Bft) 95,74 %
07.08.2022 04:16 12,6 C 11,7 C 8,9 C 87 % 1025,8 hPa 0,0 l/m 0 min 0 min 0 W/m 0,0 km/h (0 Bft) 95,65 %
07.08.2022 04:18 12,6 C 11,7 C 8,3 C 87 % 1025,8 hPa 0,0 l/m 0 min 0 min 0 W/m 3,2 km/h (1 Bft) 97,87 %
07.08.2022 04:20 12,6 C 11,7 C 8,3 C 87 % 1025,8 hPa 0,0 l/m 0 min 0 min 0 W/m 3,2 km/h (1 Bft) 95,74 %
07.08.2022 04:22 12,5 C 11,7 C 8,3 C 87 % 1025,7 hPa 0,0 l/m 0 min 0 min 0 W/m 3,2 km/h (1 Bft) 95,74 %
07.08.2022 04:24 12,5 C 11,7 C 8,3 C 87 % 1025,7 hPa 0,0 l/m 0 min 0 min 0 W/m 3,2 km/h (1 Bft) 97,87 %
07.08.2022 04:26 12,4 C 11,7 C 8,3 C 87 % 1025,8 hPa 0,0 l/m 0 min 0 min 0 W/m 3,2 km/h (1 Bft) 97,87 %
07.08.2022 04:28 12,4 C 11,7 C 8,3 C 87 % 1025,7 hPa 0,0 l/m 0 min 0 min 0 W/m 0,0 km/h (0 Bft) 97,83 %
07.08.2022 04:30 12,3 C 11,1 C 8,3 C 87 % 1025,8 hPa 0,0 l/m 0 min 0 min 0 W/m 0,0 km/h (0 Bft) 95,74 %
07.08.2022 04:32 12,3 C 11,1 C 8,3 C 87 % 1025,7 hPa 0,0 l/m 0 min 0 min 0 W/m 0,0 km/h (0 Bft) 97,87 %
07.08.2022 04:34 12,3 C 11,1 C 8,3 C 88 % 1025,7 hPa 0,0 l/m 0 min 0 min 0 W/m 0,0 km/h (0 Bft) 97,87 %
07.08.2022 04:36 12,3 C 11,1 C 8,3 C 88 % 1025,8 hPa 0,0 l/m 0 min 0 min 0 W/m 0,0 km/h (0 Bft) 94,83 %
07.08.2022 04:38 12,3 C 11,1 C 8,3 C 88 % 1025,8 hPa 0,0 l/m 0 min 0 min 0 W/m 0,0 km/h (0 Bft) 97,22 %
07.08.2022 04:40 12,3 C 11,1 C 8,3 C 88 % 1025,8 hPa 0,0 l/m 0 min 0 min 0 W/m 0,0 km/h (0 Bft) 97,83 %
07.08.2022 04:42 12,3 C 11,1 C 8,3 C 88 % 1025,8 hPa 0,0 l/m 0 min 0 min 0 W/m 0,0 km/h (0 Bft) 97,87 %
07.08.2022 04:44 12,3 C 11,1 C 8,3 C 88 % 1025,8 hPa 0,0 l/m 0 min 0 min 0 W/m 0,0 km/h (0 Bft) 97,87 %
07.08.2022 04:46 12,3 C 11,1 C 8,3 C 88 % 1025,7 hPa 0,0 l/m 0 min 0 min 0 W/m 0,0 km/h (0 Bft) 97,87 %
07.08.2022 04:48 12,2 C 11,1 C 8,3 C 88 % 1025,8 hPa 0,0 l/m 0 min 0 min 0 W/m 0,0 km/h (0 Bft) 97,87 %
07.08.2022 04:50 12,2 C 11,1 C 8,3 C 88 % 1025,7 hPa 0,0 l/m 0 min 0 min 0 W/m 0,0 km/h (0 Bft) 100,00 %
07.08.2022 04:52 12,2 C 11,1 C 8,3 C 88 % 1025,8 hPa 0,0 l/m 0 min 0 min 0 W/m 0,0 km/h (0 Bft) 100,00 %
07.08.2022 04:54 12,2 C 11,1 C 8,3 C 88 % 1025,7 hPa 0,0 l/m 0 min 0 min 0 W/m 0,0 km/h (0 Bft) 100,00 %
07.08.2022 04:56 12,2 C 11,1 C 8,3 C 88 % 1025,7 hPa 0,0 l/m 0 min 0 min 0 W/m 0,0 km/h (0 Bft) 100,00 %
07.08.2022 04:58 12,2 C 11,1 C 8,3 C 89 % 1025,7 hPa 0,0 l/m 0 min 0 min 0 W/m 0,0 km/h (0 Bft) 100,00 %
07.08.2022 05:00 12,2 C 11,1 C 8,3 C 89 % 1025,7 hPa 0,0 l/m 0 min 0 min 0 W/m 0,0 km/h (0 Bft) 100,00 %
07.08.2022 05:02 12,1 C 11,1 C 8,3 C 89 % 1025,7 hPa 0,0 l/m 0 min 0 min 0 W/m 0,0 km/h (0 Bft) 100,00 %
07.08.2022 05:04 12,1 C 11,1 C 8,3 C 89 % 1025,6 hPa 0,0 l/m 0 min 0 min 0 W/m 0,0 km/h (0 Bft) 100,00 %
07.08.2022 05:06 12,1 C 11,1 C 8,3 C 89 % 1025,7 hPa 0,0 l/m 0 min 0 min 0 W/m 0,0 km/h (0 Bft) 98,31 %
07.08.2022 05:08 12,1 C 11,1 C 7,8 C 89 % 1025,7 hPa 0,0 l/m 0 min 0 min 0 W/m 0,0 km/h (0 Bft) 100,00 %
07.08.2022 05:10 12,1 C 11,1 C 7,8 C 89 % 1025,7 hPa 0,0 l/m 0 min 0 min 0 W/m 0,0 km/h (0 Bft) 97,87 %
07.08.2022 05:12 12,1 C 11,1 C 8,3 C 89 % 1025,7 hPa 0,0 l/m 0 min 0 min 0 W/m 0,0 km/h (0 Bft) 100,00 %
07.08.2022 05:14 12,1 C 11,1 C 8,3 C 89 % 1025,7 hPa 0,0 l/m 0 min 0 min 0 W/m 0,0 km/h (0 Bft) 100,00 %
07.08.2022 05:16 12,1 C 11,1 C 8,3 C 89 % 1025,7 hPa 0,0 l/m 0 min 0 min 0 W/m 0,0 km/h (0 Bft) 100,00 %
07.08.2022 05:18 12,1 C 11,1 C 8,3 C 89 % 1025,7 hPa 0,0 l/m 0 min 0 min 0 W/m 0,0 km/h (0 Bft) 95,74 %
07.08.2022 05:20 12,0 C 11,1 C 8,3 C 89 % 1025,7 hPa 0,0 l/m 0 min 0 min 0 W/m 0,0 km/h (0 Bft) 97,87 %
07.08.2022 05:22 12,0 C 11,1 C 8,3 C 89 % 1025,6 hPa 0,0 l/m 0 min 0 min 0 W/m 0,0 km/h (0 Bft) 100,00 %
07.08.2022 05:24 12,0 C 11,1 C 8,3 C 89 % 1025,7 hPa 0,0 l/m 0 min 0 min 0 W/m 0,0 km/h (0 Bft) 100,00 %
07.08.2022 05:26 12,0 C 11,1 C 8,3 C 89 % 1025,8 hPa 0,0 l/m 0 min 0 min 0 W/m 0,0 km/h (0 Bft) 100,00 %
07.08.2022 05:28 11,9 C 11,1 C 8,3 C 89 % 1025,7 hPa 0,0 l/m 0 min 0 min 0 W/m 0,0 km/h (0 Bft) 97,83 %
07.08.2022 05:30 11,9 C 11,1 C 7,8 C 90 % 1025,7 hPa 0,0 l/m 0 min 0 min 0 W/m 0,0 km/h (0 Bft) 97,87 %
07.08.2022 05:32 11,9 C 11,1 C 7,8 C 90 % 1025,7 hPa 0,0 l/m 0 min 0 min 0 W/m 3,2 km/h (1 Bft) 93,62 %
07.08.2022 05:34 11,9 C 11,1 C 7,8 C 89 % 1025,7 hPa 0,0 l/m 0 min 0 min 0 W/m 3,2 km/h (1 Bft) 97,87 %
07.08.2022 05:36 11,9 C 11,1 C 7,8 C 89 % 1025,7 hPa 0,0 l/m 0 min 0 min 0 W/m 3,2 km/h (1 Bft) 98,28 %
07.08.2022 05:38 11,8 C 11,1 C 7,8 C 89 % 1025,7 hPa 0,0 l/m 0 min 0 min 0 W/m 3,2 km/h (1 Bft) 94,44 %
07.08.2022 05:40 11,8 C 11,1 C 7,8 C 89 % 1025,6 hPa 0,0 l/m 0 min 0 min 0 W/m 0,0 km/h (0 Bft) 95,65 %
07.08.2022 05:42 11,8 C 10,6 C 7,8 C 90 % 1025,6 hPa 0,0 l/m 0 min 0 min 0 W/m 0,0 km/h (0 Bft) 97,87 %
07.08.2022 05:44 11,8 C 10,6 C 7,8 C 89 % 1025,6 hPa 0,0 l/m 0 min 0 min 0 W/m 0,0 km/h (0 Bft) 97,87 %
07.08.2022 05:46 11,8 C 10,6 C 7,8 C 89 % 1025,7 hPa 0,0 l/m 0 min 0 min 0 W/m 0,0 km/h (0 Bft) 97,87 %
07.08.2022 05:48 11,7 C 10,6 C 7,8 C 89 % 1025,7 hPa 0,0 l/m 0 min 0 min 0 W/m 0,0 km/h (0 Bft) 97,87 %
07.08.2022 05:50 11,8 C 10,6 C 7,8 C 90 % 1025,7 hPa 0,0 l/m 0 min 0 min 0 W/m 0,0 km/h (0 Bft) 97,87 %
07.08.2022 05:52 11,7 C 10,6 C 7,8 C 90 % 1025,6 hPa 0,0 l/m 0 min 0 min 0 W/m 0,0 km/h (0 Bft) 97,83 %
07.08.2022 05:54 11,7 C 10,6 C 7,8 C 90 % 1025,6 hPa 0,0 l/m 0 min 0 min 0 W/m 0,0 km/h (0 Bft) 97,87 %
07.08.2022 05:56 11,7 C 10,6 C 7,8 C 90 % 1025,6 hPa 0,0 l/m 0 min 0 min 0 W/m 0,0 km/h (0 Bft) 97,87 %
07.08.2022 05:58 11,7 C 10,6 C 7,8 C 90 % 1025,6 hPa 0,0 l/m 0 min 0 min 0 W/m 0,0 km/h (0 Bft) 100,00 %
07.08.2022 06:00 11,7 C 10,6 C 7,8 C 90 % 1025,6 hPa 0,0 l/m 0 min 0 min 0 W/m 3,2 km/h (1 Bft) 100,00 %
07.08.2022 06:02 11,7 C 10,6 C 7,8 C 90 % 1025,6 hPa 0,0 l/m 0 min 0 min 0 W/m 3,2 km/h (1 Bft) 97,87 %
07.08.2022 06:04 11,7 C 10,6 C 7,8 C 90 % 1025,6 hPa 0,0 l/m 0 min 0 min 0 W/m 0,0 km/h (0 Bft) 100,00 %
07.08.2022 06:08 11,7 C 11,1 C 7,8 C 90 % 1025,6 hPa 0,0 l/m 0 min 0 min 0 W/m 0,0 km/h (0 Bft) 99,01 %
07.08.2022 06:10 11,7 C 10,6 C 7,8 C 90 % 1025,6 hPa 0,0 l/m 0 min 0 min 0 W/m 0,0 km/h (0 Bft) 100,00 %
07.08.2022 06:12 11,6 C 10,6 C 7,8 C 90 % 1025,6 hPa 0,0 l/m 0 min 0 min 4 W/m 0,0 km/h (0 Bft) 97,87 %
07.08.2022 06:14 11,6 C 10,6 C 7,8 C 90 % 1025,6 hPa 0,0 l/m 0 min 0 min 5 W/m 0,0 km/h (0 Bft) 100,00 %
07.08.2022 06:16 11,6 C 10,6 C 7,8 C 90 % 1025,6 hPa 0,0 l/m 0 min 0 min 5 W/m 0,0 km/h (0 Bft) 100,00 %
07.08.2022 06:18 11,6 C 10,6 C 7,8 C 90 % 1025,6 hPa 0,0 l/m 0 min 0 min 6 W/m 0,0 km/h (0 Bft) 100,00 %
07.08.2022 06:20 11,6 C 10,6 C 7,8 C 90 % 1025,6 hPa 0,0 l/m 0 min 0 min 7 W/m 0,0 km/h (0 Bft) 97,87 %
07.08.2022 06:22 11,6 C 10,6 C 7,8 C 90 % 1025,6 hPa 0,0 l/m 0 min 0 min 7 W/m 0,0 km/h (0 Bft) 95,65 %
07.08.2022 06:24 11,6 C 10,6 C 7,8 C 91 % 1025,5 hPa 0,0 l/m 0 min 0 min 8 W/m 0,0 km/h (0 Bft) 97,87 %
07.08.2022 06:26 11,6 C 10,6 C 7,8 C 91 % 1025,6 hPa 0,0 l/m 0 min 0 min 9 W/m 0,0 km/h (0 Bft) 97,87 %
07.08.2022 06:28 11,6 C 10,6 C 7,8 C 91 % 1025,6 hPa 0,0 l/m 0 min 0 min 9 W/m 0,0 km/h (0 Bft) 97,87 %
07.08.2022 06:30 11,6 C 11,1 C 7,8 C 91 % 1025,6 hPa 0,0 l/m 0 min 0 min 10 W/m 0,0 km/h (0 Bft) 95,74 %
07.08.2022 06:32 11,6 C 11,1 C 7,8 C 91 % 1025,6 hPa 0,0 l/m 0 min 0 min 11 W/m 3,2 km/h (1 Bft) 97,87 %
07.08.2022 06:34 11,6 C 10,6 C 7,8 C 91 % 1025,6 hPa 0,0 l/m 0 min 0 min 11 W/m 0,0 km/h (0 Bft) 95,65 %
07.08.2022 06:36 11,6 C 11,1 C 7,8 C 91 % 1025,6 hPa 0,0 l/m 0 min 0 min 12 W/m 0,0 km/h (0 Bft) 95,74 %
07.08.2022 06:38 11,6 C 10,6 C 7,8 C 91 % 1025,6 hPa 0,0 l/m 0 min 0 min 12 W/m 0,0 km/h (0 Bft) 93,62 %
07.08.2022 06:40 11,6 C 11,1 C 7,8 C 91 % 1025,7 hPa 0,0 l/m 0 min 0 min 12 W/m 3,2 km/h (1 Bft) 95,74 %
07.08.2022 06:42 11,6 C 10,6 C 7,8 C 91 % 1025,7 hPa 0,0 l/m 0 min 0 min 12 W/m 0,0 km/h (0 Bft) 95,74 %
07.08.2022 06:44 11,6 C 10,6 C 7,8 C 91 % 1025,7 hPa 0,0 l/m 0 min 0 min 14 W/m 0,0 km/h (0 Bft) 95,74 %
07.08.2022 06:46 11,6 C 10,6 C 7,8 C 91 % 1025,7 hPa 0,0 l/m 0 min 0 min 14 W/m 3,2 km/h (1 Bft) 95,65 %
07.08.2022 06:48 11,6 C 10,6 C 7,8 C 91 % 1025,7 hPa 0,0 l/m 0 min 0 min 14 W/m 3,2 km/h (1 Bft) 93,62 %
07.08.2022 06:50 11,6 C 10,6 C 7,8 C 91 % 1025,7 hPa 0,0 l/m 0 min 0 min 15 W/m 0,0 km/h (0 Bft) 59,57 %
07.08.2022 06:52 11,6 C 11,1 C 7,8 C 91 % 1025,7 hPa 0,0 l/m 0 min 0 min 16 W/m 0,0 km/h (0 Bft) 91,11 %
07.08.2022 06:54 11,6 C 11,1 C 7,8 C 91 % 1025,7 hPa 0,0 l/m 0 min 0 min 16 W/m 0,0 km/h (0 Bft) 95,74 %
07.08.2022 06:56 11,6 C 11,1 C 7,8 C 91 % 1025,8 hPa 0,0 l/m 0 min 0 min 16 W/m 3,2 km/h (1 Bft) 97,87 %
07.08.2022 06:58 11,6 C 11,1 C 7,8 C 91 % 1025,8 hPa 0,0 l/m 0 min 0 min 18 W/m 3,2 km/h (1 Bft) 97,83 %
07.08.2022 07:00 11,6 C 11,1 C 7,8 C 91 % 1025,7 hPa 0,0 l/m 0 min 0 min 18 W/m 3,2 km/h (1 Bft) 97,87 %
07.08.2022 07:02 11,5 C 11,1 C 7,8 C 91 % 1025,7 hPa 0,0 l/m 0 min 0 min 18 W/m 3,2 km/h (1 Bft) 97,87 %
07.08.2022 07:04 11,5 C 11,1 C 7,8 C 91 % 1025,7 hPa 0,0 l/m 0 min 0 min 18 W/m 3,2 km/h (1 Bft) 97,87 %
07.08.2022 07:06 11,5 C 11,1 C 7,8 C 91 % 1025,7 hPa 0,0 l/m 0 min 0 min 19 W/m 3,2 km/h (1 Bft) 95,74 %
07.08.2022 07:08 11,5 C 11,1 C 7,8 C 91 % 1025,7 hPa 0,0 l/m 0 min 0 min 19 W/m 0,0 km/h (0 Bft) 95,65 %
07.08.2022 07:10 11,5 C 11,1 C 7,8 C 91 % 1025,7 hPa 0,0 l/m 0 min 0 min 19 W/m 3,2 km/h (1 Bft) 95,74 %
07.08.2022 07:12 11,5 C 11,1 C 8,3 C 91 % 1025,7 hPa 0,0 l/m 0 min 0 min 19 W/m 0,0 km/h (0 Bft) 93,62 %
07.08.2022 07:14 11,6 C 11,1 C 8,3 C 91 % 1025,8 hPa 0,0 l/m 0 min 0 min 20 W/m 0,0 km/h (0 Bft) 95,74 %
07.08.2022 07:16 11,6 C 11,1 C 8,3 C 91 % 1025,8 hPa 0,0 l/m 0 min 0 min 21 W/m 3,2 km/h (1 Bft) 95,74 %
07.08.2022 07:18 11,6 C 11,1 C 8,3 C 91 % 1025,8 hPa 0,0 l/m 0 min 0 min 21 W/m 3,2 km/h (1 Bft) 95,74 %
07.08.2022 07:20 11,6 C 11,1 C 8,3 C 91 % 1025,8 hPa 0,0 l/m 0 min 0 min 21 W/m 0,0 km/h (0 Bft) 95,65 %
07.08.2022 07:22 11,6 C 11,7 C 8,3 C 92 % 1025,8 hPa 0,0 l/m 0 min 0 min 21 W/m 3,2 km/h (1 Bft) 95,74 %
07.08.2022 07:24 11,6 C 11,7 C 8,3 C 92 % 1025,9 hPa 0,0 l/m 0 min 0 min 23 W/m 3,2 km/h (1 Bft) 95,74 %
07.08.2022 07:26 11,7 C 11,7 C 8,3 C 92 % 1025,9 hPa 0,0 l/m 0 min 0 min 23 W/m 0,0 km/h (0 Bft) 93,62 %
07.08.2022 07:28 11,7 C 11,7 C 8,9 C 92 % 1025,9 hPa 0,0 l/m 0 min 0 min 23 W/m 0,0 km/h (0 Bft) 97,87 %
07.08.2022 07:30 11,7 C 11,7 C 8,9 C 92 % 1025,9 hPa 0,0 l/m 0 min 0 min 24 W/m 0,0 km/h (0 Bft) 93,62 %
07.08.2022 07:32 11,8 C 11,7 C 8,9 C 92 % 1025,9 hPa 0,0 l/m 0 min 0 min 25 W/m 0,0 km/h (0 Bft) 97,83 %
07.08.2022 07:34 11,8 C 11,7 C 8,9 C 92 % 1026,0 hPa 0,0 l/m 0 min 0 min 25 W/m 0,0 km/h (0 Bft) 97,87 %
07.08.2022 07:36 11,9 C 11,7 C 8,9 C 92 % 1026,0 hPa 0,0 l/m 0 min 0 min 25 W/m 0,0 km/h (0 Bft) 97,87 %
07.08.2022 07:38 11,9 C 11,7 C 8,9 C 92 % 1026,0 hPa 0,0 l/m 0 min 0 min 26 W/m 0,0 km/h (0 Bft) 97,87 %
07.08.2022 07:40 12,0 C 12,2 C 8,9 C 92 % 1026,0 hPa 0,0 l/m 0 min 0 min 26 W/m 3,2 km/h (1 Bft) 100,00 %
07.08.2022 07:42 12,1 C 12,2 C 8,9 C 92 % 1026,0 hPa 0,0 l/m 0 min 0 min 26 W/m 0,0 km/h (0 Bft) 100,00 %
07.08.2022 07:44 12,1 C 12,2 C 8,9 C 92 % 1026,0 hPa 0,0 l/m 0 min 0 min 27 W/m 0,0 km/h (0 Bft) 97,83 %
07.08.2022 07:46 12,2 C 12,2 C 8,9 C 92 % 1026,0 hPa 0,0 l/m 0 min 0 min 28 W/m 3,2 km/h (1 Bft) 100,00 %
07.08.2022 07:48 12,2 C 12,2 C 9,4 C 92 % 1026,0 hPa 0,0 l/m 0 min 0 min 28 W/m 3,2 km/h (1 Bft) 100,00 %
07.08.2022 07:50 12,2 C 12,2 C 9,4 C 92 % 1026,0 hPa 0,0 l/m 0 min 0 min 28 W/m 3,2 km/h (1 Bft) 100,00 %
07.08.2022 07:52 12,2 C 12,2 C 9,4 C 92 % 1026,1 hPa 0,0 l/m 0 min 0 min 29 W/m 0,0 km/h (0 Bft) 97,87 %
07.08.2022 07:54 12,2 C 12,2 C 9,4 C 92 % 1026,0 hPa 0,0 l/m 0 min 0 min 30 W/m 0,0 km/h (0 Bft) 100,00 %
07.08.2022 07:56 12,3 C 12,8 C 9,4 C 92 % 1026,0 hPa 0,0 l/m 0 min 0 min 30 W/m 0,0 km/h (0 Bft) 100,00 %
07.08.2022 07:58 12,3 C 12,8 C 9,4 C 92 % 1026,0 hPa 0,0 l/m 0 min 0 min 30 W/m 3,2 km/h (1 Bft) 100,00 %
07.08.2022 08:00 12,3 C 12,8 C 9,4 C 93 % 1026,0 hPa 0,0 l/m 0 min 0 min 32 W/m 0,0 km/h (0 Bft) 97,87 %
07.08.2022 08:02 12,4 C 12,8 C 9,4 C 93 % 1026,0 hPa 0,0 l/m 0 min 0 min 32 W/m 0,0 km/h (0 Bft) 100,00 %
07.08.2022 08:04 12,5 C 12,8 C 9,4 C 93 % 1026,1 hPa 0,0 l/m 0 min 0 min 32 W/m 0,0 km/h (0 Bft) 97,87 %
07.08.2022 08:06 12,5 C 12,8 C 9,4 C 93 % 1026,1 hPa 0,0 l/m 0 min 0 min 33 W/m 0,0 km/h (0 Bft) 100,00 %
07.08.2022 08:08 12,6 C 12,8 C 10,0 C 93 % 1026,1 hPa 0,0 l/m 0 min 0 min 33 W/m 0,0 km/h (0 Bft) 100,00 %
07.08.2022 08:10 12,6 C 12,8 C 10,0 C 93 % 1026,1 hPa 0,0 l/m 0 min 0 min 33 W/m 0,0 km/h (0 Bft) 100,00 %
07.08.2022 08:12 12,6 C 13,3 C 10,0 C 93 % 1026,1 hPa 0,0 l/m 0 min 0 min 35 W/m 3,2 km/h (1 Bft) 100,00 %
07.08.2022 08:14 12,6 C 13,3 C 10,0 C 93 % 1026,1 hPa 0,0 l/m 0 min 0 min 35 W/m 0,0 km/h (0 Bft) 100,00 %
07.08.2022 08:16 12,7 C 13,3 C 10,0 C 93 % 1026,2 hPa 0,0 l/m 0 min 0 min 43 W/m 0,0 km/h (0 Bft) 97,87 %
07.08.2022 08:18 12,8 C 13,3 C 10,0 C 93 % 1026,1 hPa 0,0 l/m 0 min 0 min 142 W/m 0,0 km/h (0 Bft) 100,00 %
07.08.2022 08:20 12,8 C 13,3 C 10,6 C 93 % 1026,1 hPa 0,0 l/m 2 min 0 min 271 W/m 3,2 km/h (1 Bft) 100,00 %
07.08.2022 08:22 12,8 C 13,9 C 10,6 C 93 % 1026,1 hPa 0,0 l/m 2 min 0 min 284 W/m 3,2 km/h (1 Bft) 100,00 %
07.08.2022 08:24 12,9 C 13,9 C 10,6 C 93 % 1026,2 hPa 0,0 l/m 2 min 0 min 290 W/m 3,2 km/h (1 Bft) 100,00 %
07.08.2022 08:26 13,0 C 13,9 C 10,6 C 93 % 1026,2 hPa 0,0 l/m 2 min 0 min 242 W/m 3,2 km/h (1 Bft) 100,00 %
07.08.2022 08:28 13,1 C 13,9 C 10,6 C 93 % 1026,2 hPa 0,0 l/m 2 min 0 min 239 W/m 3,2 km/h (1 Bft) 97,87 %
07.08.2022 08:30 13,1 C 13,9 C 10,6 C 93 % 1026,1 hPa 0,0 l/m 2 min 0 min 294 W/m 0,0 km/h (0 Bft) 100,00 %
07.08.2022 08:32 13,2 C 14,4 C 10,6 C 93 % 1026,1 hPa 0,0 l/m 2 min 0 min 299 W/m 0,0 km/h (0 Bft) 100,00 %
07.08.2022 08:34 13,3 C 14,4 C 11,1 C 93 % 1026,2 hPa 0,0 l/m 2 min 0 min 307 W/m 0,0 km/h (0 Bft) 97,87 %
07.08.2022 08:36 13,3 C 14,4 C 11,1 C 94 % 1026,2 hPa 0,0 l/m 2 min 0 min 314 W/m 3,2 km/h (1 Bft) 95,74 %
07.08.2022 08:38 13,4 C 15,0 C 11,1 C 93 % 1026,1 hPa 0,0 l/m 2 min 0 min 315 W/m 3,2 km/h (1 Bft) 97,87 %
07.08.2022 08:40 13,6 C 15,0 C 11,1 C 93 % 1026,1 hPa 0,0 l/m 2 min 0 min 321 W/m 3,2 km/h (1 Bft) 97,87 %
07.08.2022 08:42 13,7 C 15,6 C 11,1 C 94 % 1026,0 hPa 0,0 l/m 2 min 0 min 328 W/m 3,2 km/h (1 Bft) 97,87 %
07.08.2022 08:44 13,8 C 16,1 C 11,1 C 94 % 1026,1 hPa 0,0 l/m 2 min 0 min 337 W/m 3,2 km/h (1 Bft) 95,65 %
07.08.2022 08:46 13,8 C 16,7 C 11,7 C 93 % 1026,1 hPa 0,0 l/m 2 min 0 min 356 W/m 3,2 km/h (1 Bft) 97,87 %
07.08.2022 08:48 14,0 C 16,1 C 11,7 C 93 % 1026,1 hPa 0,0 l/m 2 min 0 min 357 W/m 3,2 km/h (1 Bft) 97,87 %
07.08.2022 08:50 14,1 C 16,1 C 11,7 C 93 % 1026,1 hPa 0,0 l/m 2 min 0 min 355 W/m 0,0 km/h (0 Bft) 97,87 %
07.08.2022 08:52 14,3 C 16,1 C 11,7 C 93 % 1026,1 hPa 0,0 l/m 2 min 0 min 365 W/m 3,2 km/h (1 Bft) 95,74 %
07.08.2022 08:54 14,3 C 16,7 C 11,7 C 92 % 1026,1 hPa 0,0 l/m 2 min 0 min 373 W/m 3,2 km/h (1 Bft) 95,74 %
07.08.2022 08:56 14,6 C 18,3 C 11,7 C 91 % 1026,0 hPa 0,0 l/m 2 min 0 min 381 W/m 3,2 km/h (1 Bft) 95,65 %
07.08.2022 08:58 14,7 C 19,4 C 11,7 C 91 % 1026,1 hPa 0,0 l/m 2 min 0 min 386 W/m 3,2 km/h (1 Bft) 93,62 %
07.08.2022 09:00 14,9 C 21,7 C 12,2 C 90 % 1026,0 hPa 0,0 l/m 2 min 0 min 393 W/m 3,2 km/h (1 Bft) 93,62 %
07.08.2022 09:02 15,2 C 22,8 C 12,2 C 89 % 1026,0 hPa 0,0 l/m 2 min 0 min 399 W/m 6,4 km/h (2 Bft) 93,62 %
07.08.2022 09:04 15,5 C 23,3 C 12,8 C 87 % 1026,0 hPa 0,0 l/m 2 min 0 min 403 W/m 3,2 km/h (1 Bft) 95,74 %
07.08.2022 09:06 15,8 C 23,9 C 13,3 C 85 % 1026,0 hPa 0,0 l/m 2 min 0 min 412 W/m 3,2 km/h (1 Bft) 97,87 %
07.08.2022 09:08 16,1 C 25,0 C 13,9 C 84 % 1026,0 hPa 0,0 l/m 2 min 0 min 421 W/m 3,2 km/h (1 Bft) 95,65 %
07.08.2022 09:10 16,6 C 25,0 C 13,9 C 83 % 1026,0 hPa 0,0 l/m 2 min 0 min 430 W/m 3,2 km/h (1 Bft) 95,83 %
07.08.2022 09:12 16,9 C 25,6 C 14,4 C 80 % 1026,0 hPa 0,0 l/m 2 min 0 min 438 W/m 6,4 km/h (2 Bft) 95,74 %
07.08.2022 09:14 17,2 C 26,1 C 15,0 C 79 % 1026,0 hPa 0,0 l/m 2 min 0 min 447 W/m 6,4 km/h (2 Bft) 95,83 %
07.08.2022 09:16 17,6 C 26,7 C 15,6 C 78 % 1026,0 hPa 0,0 l/m 2 min 0 min 453 W/m 3,2 km/h (1 Bft) 93,62 %
07.08.2022 09:18 17,8 C 26,7 C 16,1 C 76 % 1026,0 hPa 0,0 l/m 2 min 0 min 460 W/m 3,2 km/h (1 Bft) 95,74 %
07.08.2022 09:20 18,2 C 26,7 C 16,1 C 75 % 1026,0 hPa 0,0 l/m 2 min 0 min 466 W/m 3,2 km/h (1 Bft) 95,65 %
07.08.2022 09:22 18,5 C 26,7 C 16,7 C 74 % 1026,0 hPa 0,0 l/m 2 min 0 min 467 W/m 3,2 km/h (1 Bft) 95,74 %
07.08.2022 09:24 18,7 C 26,7 C 16,7 C 71 % 1026,0 hPa 0,0 l/m 2 min 0 min 474 W/m 3,2 km/h (1 Bft) 95,74 %
07.08.2022 09:26 18,8 C 27,2 C 17,2 C 71 % 1026,0 hPa 0,0 l/m 2 min 0 min 482 W/m 3,2 km/h (1 Bft) 95,74 %
07.08.2022 09:28 19,0 C 26,7 C 17,2 C 69 % 1025,9 hPa 0,0 l/m 2 min 0 min 488 W/m 3,2 km/h (1 Bft) 97,87 %
07.08.2022 09:30 19,1 C 26,1 C 17,8 C 68 % 1025,9 hPa 0,0 l/m 2 min 0 min 495 W/m 6,4 km/h (2 Bft) 95,65 %
07.08.2022 09:32 19,2 C 26,1 C 17,2 C 68 % 1026,0 hPa 0,0 l/m 2 min 0 min 500 W/m 6,4 km/h (2 Bft) 93,62 %
07.08.2022 09:34 19,3 C 25,6 C 17,8 C 67 % 1026,0 hPa 0,0 l/m 2 min 0 min 506 W/m 0,0 km/h (0 Bft) 95,74 %
07.08.2022 09:36 19,4 C 25,6 C 17,2 C 66 % 1026,0 hPa 0,0 l/m 2 min 0 min 510 W/m 3,2 km/h (1 Bft) 95,74 %
07.08.2022 09:38 19,6 C 25,6 C 17,2 C 66 % 1025,9 hPa 0,0 l/m 2 min 0 min 518 W/m 6,4 km/h (2 Bft) 96,00 %
07.08.2022 09:40 19,7 C 25,6 C 17,2 C 66 % 1025,9 hPa 0,0 l/m 2 min 0 min 522 W/m 6,4 km/h (2 Bft) 95,74 %
07.08.2022 09:42 19,8 C 25,0 C 16,7 C 65 % 1026,0 hPa 0,0 l/m 2 min 0 min 527 W/m 6,4 km/h (2 Bft) 95,74 %
07.08.2022 09:44 19,8 C 25,0 C 16,7 C 65 % 1026,0 hPa 0,0 l/m 2 min 0 min 531 W/m 3,2 km/h (1 Bft) 95,74 %
07.08.2022 09:46 19,9 C 24,4 C 16,7 C 65 % 1026,0 hPa 0,0 l/m 2 min 0 min 539 W/m 3,2 km/h (1 Bft) 93,48 %
07.08.2022 09:48 19,9 C 24,4 C 16,1 C 64 % 1025,9 hPa 0,0 l/m 2 min 0 min 543 W/m 3,2 km/h (1 Bft) 95,74 %
07.08.2022 09:50 20,0 C 24,4 C 16,1 C 64 % 1025,9 hPa 0,0 l/m 2 min 0 min 549 W/m 3,2 km/h (1 Bft) 95,74 %
07.08.2022 09:52 20,0 C 25,0 C 16,1 C 63 % 1025,9 hPa 0,0 l/m 2 min 0 min 554 W/m 3,2 km/h (1 Bft) 93,62 %
07.08.2022 09:54 20,1 C 25,6 C 15,6 C 64 % 1025,9 hPa 0,0 l/m 2 min 0 min 560 W/m 3,2 km/h (1 Bft) 95,74 %
07.08.2022 09:56 20,1 C 26,1 C 15,6 C 63 % 1025,8 hPa 0,0 l/m 2 min 0 min 565 W/m 3,2 km/h (1 Bft) 95,74 %
07.08.2022 09:58 20,2 C 26,1 C 15,0 C 63 % 1025,8 hPa 0,0 l/m 2 min 0 min 569 W/m 3,2 km/h (1 Bft) 93,48 %
07.08.2022 10:00 20,3 C 26,1 C 15,0 C 63 % 1025,9 hPa 0,0 l/m 2 min 0 min 575 W/m 6,4 km/h (2 Bft) 93,62 %
07.08.2022 10:02 20,4 C 26,1 C 15,0 C 62 % 1025,9 hPa 0,0 l/m 2 min 0 min 579 W/m 3,2 km/h (1 Bft) 93,62 %
07.08.2022 10:04 20,5 C 26,1 C 15,0 C 63 % 1025,9 hPa 0,0 l/m 2 min 0 min 586 W/m 3,2 km/h (1 Bft) 93,62 %
07.08.2022 10:06 20,6 C 26,1 C 15,0 C 62 % 1025,9 hPa 0,0 l/m 2 min 0 min 593 W/m 3,2 km/h (1 Bft) 97,87 %
07.08.2022 10:08 20,6 C 26,1 C 15,0 C 61 % 1025,8 hPa 0,0 l/m 2 min 0 min 596 W/m 6,4 km/h (2 Bft) 95,74 %
07.08.2022 10:10 20,6 C 26,1 C 15,0 C 61 % 1025,9 hPa 0,0 l/m 2 min 0 min 602 W/m 3,2 km/h (1 Bft) 95,65 %
07.08.2022 10:12 20,6 C 25,0 C 15,0 C 60 % 1025,9 hPa 0,0 l/m 2 min 0 min 608 W/m 9,7 km/h (2 Bft) 97,87 %
07.08.2022 10:14 20,6 C 24,4 C 15,0 C 59 % 1025,8 hPa 0,0 l/m 2 min 0 min 613 W/m 6,4 km/h (2 Bft) 97,87 %
07.08.2022 10:16 20,6 C 25,0 C 15,0 C 60 % 1025,8 hPa 0,0 l/m 2 min 0 min 618 W/m 9,7 km/h (2 Bft) 100,00 %
07.08.2022 10:18 20,6 C 25,0 C 15,0 C 60 % 1025,8 hPa 0,0 l/m 2 min 0 min 624 W/m 3,2 km/h (1 Bft) 100,00 %
07.08.2022 10:20 20,7 C 24,4 C 15,0 C 60 % 1025,8 hPa 0,0 l/m 2 min 0 min 628 W/m 3,2 km/h (1 Bft) 98,18 %
07.08.2022 10:22 20,7 C 23,9 C 15,0 C 59 % 1025,7 hPa 0,0 l/m 2 min 0 min 634 W/m 3,2 km/h (1 Bft) 100,00 %
07.08.2022 10:24 20,7 C 23,3 C 15,0 C 59 % 1025,8 hPa 0,0 l/m 2 min 0 min 640 W/m 6,4 km/h (2 Bft) 97,87 %
07.08.2022 10:26 20,7 C 23,3 C 15,6 C 59 % 1025,8 hPa 0,0 l/m 2 min 0 min 644 W/m 3,2 km/h (1 Bft) 100,00 %
07.08.2022 10:28 20,7 C 23,3 C 15,6 C 59 % 1025,7 hPa 0,0 l/m 2 min 0 min 650 W/m 6,4 km/h (2 Bft) 100,00 %
07.08.2022 10:30 20,7 C 23,9 C 15,6 C 58 % 1025,7 hPa 0,0 l/m 2 min 0 min 655 W/m 3,2 km/h (1 Bft) 100,00 %
07.08.2022 10:32 20,8 C 24,4 C 15,6 C 56 % 1025,7 hPa 0,0 l/m 2 min 0 min 659 W/m 6,4 km/h (2 Bft) 97,87 %
07.08.2022 10:34 20,8 C 24,4 C 15,6 C 55 % 1025,7 hPa 0,0 l/m 2 min 0 min 663 W/m 3,2 km/h (1 Bft) 100,00 %
07.08.2022 10:36 20,9 C 24,4 C 15,6 C 55 % 1025,7 hPa 0,0 l/m 2 min 0 min 668 W/m 6,4 km/h (2 Bft) 100,00 %
07.08.2022 10:38 20,9 C 23,9 C 16,1 C 55 % 1025,7 hPa 0,0 l/m 2 min 0 min 671 W/m 3,2 km/h (1 Bft) 100,00 %
07.08.2022 10:40 20,9 C 23,9 C 16,1 C 55 % 1025,6 hPa 0,0 l/m 2 min 0 min 676 W/m 3,2 km/h (1 Bft) 100,00 %
07.08.2022 10:42 21,1 C 23,9 C 16,1 C 55 % 1025,6 hPa 0,0 l/m 2 min 0 min 680 W/m 6,4 km/h (2 Bft) 100,00 %
07.08.2022 10:44 21,1 C 23,3 C 16,1 C 54 % 1025,6 hPa 0,0 l/m 2 min 0 min 684 W/m 6,4 km/h (2 Bft) 100,00 %
07.08.2022 10:46 21,2 C 23,3 C 16,1 C 54 % 1025,6 hPa 0,0 l/m 2 min 0 min 688 W/m 6,4 km/h (2 Bft) 100,00 %
07.08.2022 10:48 21,2 C 22,2 C 16,7 C 53 % 1025,6 hPa 0,0 l/m 2 min 0 min 693 W/m 12,9 km/h (3 Bft) 100,00 %
07.08.2022 10:50 21,3 C 22,8 C 16,7 C 53 % 1025,6 hPa 0,0 l/m 2 min 0 min 697 W/m 3,2 km/h (1 Bft) 100,00 %
07.08.2022 10:52 21,4 C 22,2 C 16,7 C 53 % 1025,5 hPa 0,0 l/m 2 min 0 min 701 W/m 3,2 km/h (1 Bft) 100,00 %
07.08.2022 10:54 21,4 C 22,2 C 16,7 C 52 % 1025,6 hPa 0,0 l/m 2 min 0 min 705 W/m 3,2 km/h (1 Bft) 100,00 %
07.08.2022 10:56 21,5 C 22,2 C 16,7 C 53 % 1025,5 hPa 0,0 l/m 2 min 0 min 709 W/m 6,4 km/h (2 Bft) 100,00 %
07.08.2022 10:58 21,6 C 22,2 C 16,7 C 53 % 1025,5 hPa 0,0 l/m 2 min 0 min 713 W/m 6,4 km/h (2 Bft) 100,00 %
07.08.2022 11:00 21,7 C 22,2 C 16,7 C 52 % 1025,6 hPa 0,0 l/m 2 min 0 min 717 W/m 9,7 km/h (2 Bft) 98,28 %
07.08.2022 11:02 21,8 C 22,2 C 16,7 C 52 % 1025,5 hPa 0,0 l/m 2 min 0 min 720 W/m 16,1 km/h (3 Bft) 97,14 %
07.08.2022 11:04 21,9 C 22,8 C 17,2 C 53 % 1025,5 hPa 0,0 l/m 2 min 0 min 724 W/m 6,4 km/h (2 Bft) 97,87 %
07.08.2022 11:06 21,9 C 22,8 C 17,2 C 52 % 1025,5 hPa 0,0 l/m 2 min 0 min 729 W/m 9,7 km/h (2 Bft) 98,31 %
07.08.2022 11:08 22,0 C 22,8 C 16,7 C 51 % 1025,5 hPa 0,0 l/m 2 min 0 min 734 W/m 9,7 km/h (2 Bft) 95,74 %
07.08.2022 11:10 22,1 C 22,8 C 16,7 C 51 % 1025,5 hPa 0,0 l/m 2 min 0 min 739 W/m 9,7 km/h (2 Bft) 100,00 %
07.08.2022 11:12 22,1 C 22,8 C 16,7 C 51 % 1025,5 hPa 0,0 l/m 2 min 0 min 742 W/m 6,4 km/h (2 Bft) 97,83 %
07.08.2022 11:14 22,1 C 22,2 C 16,7 C 50 % 1025,5 hPa 0,0 l/m 2 min 0 min 745 W/m 6,4 km/h (2 Bft) 96,61 %
07.08.2022 11:16 22,1 C 21,7 C 16,7 C 50 % 1025,5 hPa 0,0 l/m 2 min 0 min 750 W/m 9,7 km/h (2 Bft) 100,00 %
07.08.2022 11:18 22,1 C 22,2 C 16,7 C 51 % 1025,5 hPa 0,0 l/m 2 min 0 min 752 W/m 6,4 km/h (2 Bft) 97,87 %
07.08.2022 11:20 22,1 C 22,2 C 16,7 C 52 % 1025,5 hPa 0,0 l/m 2 min 0 min 756 W/m 6,4 km/h (2 Bft) 97,87 %
07.08.2022 11:22 22,2 C 22,8 C 16,7 C 51 % 1025,5 hPa 0,0 l/m 2 min 0 min 762 W/m 6,4 km/h (2 Bft) 95,74 %
07.08.2022 11:24 22,3 C 22,8 C 16,7 C 49 % 1025,5 hPa 0,0 l/m 2 min 0 min 765 W/m 9,7 km/h (2 Bft) 96,55 %
07.08.2022 11:26 22,3 C 22,8 C 17,2 C 49 % 1025,4 hPa 0,0 l/m 2 min 0 min 769 W/m 12,9 km/h (3 Bft) 94,29 %
07.08.2022 11:28 22,4 C 23,3 C 17,2 C 49 % 1025,5 hPa 0,0 l/m 2 min 0 min 771 W/m 9,7 km/h (2 Bft) 97,87 %
07.08.2022 11:30 22,5 C 23,9 C 17,2 C 49 % 1025,4 hPa 0,0 l/m 2 min 0 min 773 W/m 6,4 km/h (2 Bft) 97,87 %
07.08.2022 11:32 22,6 C 23,9 C 17,8 C 48 % 1025,4 hPa 0,0 l/m 2 min 0 min 776 W/m 6,4 km/h (2 Bft) 97,87 %
07.08.2022 11:34 22,8 C 24,4 C 17,8 C 48 % 1025,4 hPa 0,0 l/m 2 min 0 min 781 W/m 6,4 km/h (2 Bft) 100,00 %
07.08.2022 11:36 22,8 C 25,0 C 17,8 C 48 % 1025,4 hPa 0,0 l/m 2 min 0 min 785 W/m 6,4 km/h (2 Bft) 100,00 %
07.08.2022 11:38 22,9 C 25,6 C 17,8 C 48 % 1025,4 hPa 0,0 l/m 2 min 0 min 787 W/m 6,4 km/h (2 Bft) 100,00 %
07.08.2022 11:40 23,1 C 26,1 C 18,3 C 49 % 1025,4 hPa 0,0 l/m 2 min 0 min 802 W/m 6,4 km/h (2 Bft) 100,00 %
07.08.2022 11:42 23,2 C 26,7 C 18,3 C 48 % 1025,3 hPa 0,0 l/m 2 min 0 min 793 W/m 9,7 km/h (2 Bft) 100,00 %
07.08.2022 11:44 23,3 C 26,7 C 18,3 C 48 % 1025,4 hPa 0,0 l/m 2 min 0 min 795 W/m 9,7 km/h (2 Bft) 100,00 %
07.08.2022 11:46 23,3 C 26,1 C 18,3 C 48 % 1025,3 hPa 0,0 l/m 2 min 0 min 801 W/m 3,2 km/h (1 Bft) 100,00 %
07.08.2022 11:48 23,3 C 26,1 C 18,3 C 48 % 1025,3 hPa 0,0 l/m 2 min 0 min 803 W/m 6,4 km/h (2 Bft) 100,00 %
07.08.2022 11:50 23,4 C 25,6 C 18,3 C 47 % 1025,3 hPa 0,0 l/m 2 min 0 min 806 W/m 6,4 km/h (2 Bft) 100,00 %
07.08.2022 11:52 23,4 C 25,6 C 18,3 C 48 % 1025,3 hPa 0,0 l/m 2 min 0 min 809 W/m 3,2 km/h (1 Bft) 100,00 %
07.08.2022 11:54 23,5 C 26,1 C 18,3 C 48 % 1025,3 hPa 0,0 l/m 2 min 0 min 812 W/m 9,7 km/h (2 Bft) 100,00 %
07.08.2022 11:56 23,6 C 26,1 C 18,3 C 47 % 1025,2 hPa 0,0 l/m 2 min 0 min 816 W/m 6,4 km/h (2 Bft) 100,00 %
07.08.2022 11:58 23,7 C 26,1 C 18,3 C 47 % 1025,3 hPa 0,0 l/m 2 min 0 min 825 W/m 6,4 km/h (2 Bft) 100,00 %
07.08.2022 12:00 23,7 C 26,1 C 18,9 C 47 % 1025,3 hPa 0,0 l/m 2 min 0 min 822 W/m 9,7 km/h (2 Bft) 100,00 %
07.08.2022 12:02 23,8 C 26,7 C 18,9 C 45 % 1025,2 hPa 0,0 l/m 2 min 0 min 825 W/m 9,7 km/h (2 Bft) 100,00 %
07.08.2022 12:04 23,8 C 26,7 C 18,9 C 46 % 1025,2 hPa 0,0 l/m 2 min 0 min 828 W/m 6,4 km/h (2 Bft) 100,00 %
07.08.2022 12:08 23,9 C 27,2 C 19,4 C 46 % 1025,2 hPa 0,0 l/m 4 min 0 min 831 W/m 6,4 km/h (2 Bft) 97,00 %
07.08.2022 12:10 24,1 C 27,2 C 20,0 C 47 % 1025,1 hPa 0,0 l/m 2 min 0 min 834 W/m 12,9 km/h (3 Bft) 97,87 %
07.08.2022 12:12 24,1 C 27,2 C 20,0 C 47 % 1025,1 hPa 0,0 l/m 2 min 0 min 839 W/m 9,7 km/h (2 Bft) 95,74 %
07.08.2022 12:14 24,2 C 26,7 C 20,0 C 45 % 1025,1 hPa 0,0 l/m 2 min 0 min 844 W/m 3,2 km/h (1 Bft) 97,87 %
07.08.2022 12:16 24,2 C 27,2 C 20,6 C 46 % 1025,0 hPa 0,0 l/m 2 min 0 min 846 W/m 9,7 km/h (2 Bft) 97,87 %
07.08.2022 12:18 24,2 C 26,7 C 21,7 C 45 % 1025,0 hPa 0,0 l/m 2 min 0 min 848 W/m 9,7 km/h (2 Bft) 97,83 %
07.08.2022 12:20 24,2 C 27,2 C 22,2 C 46 % 1025,0 hPa 0,0 l/m 2 min 0 min 847 W/m 9,7 km/h (2 Bft) 97,87 %
07.08.2022 12:22 24,2 C 27,2 C 22,8 C 46 % 1024,9 hPa 0,0 l/m 2 min 0 min 848 W/m 12,9 km/h (3 Bft) 97,87 %
07.08.2022 12:24 24,3 C 26,7 C 23,3 C 46 % 1024,9 hPa 0,0 l/m 2 min 0 min 853 W/m 6,4 km/h (2 Bft) 93,62 %
07.08.2022 12:26 24,3 C 27,2 C 25,0 C 45 % 1024,9 hPa 0,0 l/m 2 min 0 min 856 W/m 6,4 km/h (2 Bft) 97,87 %
07.08.2022 12:28 24,4 C 27,2 C 26,1 C 45 % 1024,9 hPa 0,0 l/m 2 min 0 min 855 W/m 6,4 km/h (2 Bft) 97,87 %
07.08.2022 12:30 24,5 C 27,2 C 26,7 C 45 % 1024,9 hPa 0,0 l/m 2 min 0 min 855 W/m 6,4 km/h (2 Bft) 97,83 %
07.08.2022 12:32 24,6 C 27,2 C 26,7 C 45 % 1024,9 hPa 0,0 l/m 2 min 0 min 856 W/m 6,4 km/h (2 Bft) 97,87 %
07.08.2022 12:34 24,7 C 27,2 C 26,7 C 46 % 1024,9 hPa 0,0 l/m 2 min 0 min 860 W/m 12,9 km/h (3 Bft) 97,87 %
07.08.2022 12:36 24,7 C 27,2 C 26,7 C 46 % 1024,9 hPa 0,0 l/m 2 min 0 min 860 W/m 6,4 km/h (2 Bft) 97,87 %
07.08.2022 12:38 24,7 C 27,2 C 25,6 C 45 % 1024,9 hPa 0,0 l/m 2 min 0 min 856 W/m 19,3 km/h (3 Bft) 97,87 %
07.08.2022 12:40 24,7 C 27,2 C 23,9 C 47 % 1024,8 hPa 0,0 l/m 2 min 0 min 855 W/m 12,9 km/h (3 Bft) 95,74 %
07.08.2022 12:42 24,7 C 27,2 C 23,9 C 46 % 1024,8 hPa 0,0 l/m 2 min 0 min 855 W/m 12,9 km/h (3 Bft) 95,65 %
07.08.2022 12:44 24,7 C 27,2 C 23,3 C 46 % 1024,9 hPa 0,0 l/m 2 min 0 min 857 W/m 9,7 km/h (2 Bft) 97,87 %
07.08.2022 12:46 24,6 C 26,7 C 22,8 C 46 % 1024,8 hPa 0,0 l/m 2 min 0 min 857 W/m 16,1 km/h (3 Bft) 97,87 %
07.08.2022 12:48 24,6 C 26,7 C 21,7 C 46 % 1024,7 hPa 0,0 l/m 2 min 0 min 862 W/m 12,9 km/h (3 Bft) 97,87 %
07.08.2022 12:50 24,6 C 26,7 C 21,1 C 46 % 1024,8 hPa 0,0 l/m 2 min 0 min 866 W/m 6,4 km/h (2 Bft) 97,87 %
07.08.2022 12:52 24,6 C 26,7 C 20,6 C 47 % 1024,7 hPa 0,0 l/m 2 min 0 min 867 W/m 9,7 km/h (2 Bft) 100,00 %
07.08.2022 12:54 24,7 C 26,7 C 20,6 C 45 % 1024,7 hPa 0,0 l/m 2 min 0 min 866 W/m 9,7 km/h (2 Bft) 100,00 %
07.08.2022 12:56 24,7 C 26,7 C 20,0 C 47 % 1024,7 hPa 0,0 l/m 2 min 0 min 864 W/m 16,1 km/h (3 Bft) 97,87 %
07.08.2022 12:58 24,7 C 26,1 C 20,0 C 45 % 1024,7 hPa 0,0 l/m 2 min 0 min 870 W/m 12,9 km/h (3 Bft) 93,62 %
07.08.2022 13:00 24,7 C 26,1 C 20,0 C 45 % 1024,7 hPa 0,0 l/m 2 min 0 min 874 W/m 12,9 km/h (3 Bft) 95,74 %
07.08.2022 13:02 24,6 C 26,1 C 19,4 C 45 % 1024,7 hPa 0,0 l/m 2 min 0 min 873 W/m 16,1 km/h (3 Bft) 95,74 %
07.08.2022 13:04 24,6 C 25,6 C 19,4 C 45 % 1024,7 hPa 0,0 l/m 2 min 0 min 871 W/m 16,1 km/h (3 Bft) 95,74 %
07.08.2022 13:06 24,6 C 25,6 C 19,4 C 45 % 1024,6 hPa 0,0 l/m 2 min 0 min 871 W/m 9,7 km/h (2 Bft) 97,83 %
07.08.2022 13:08 24,6 C 25,6 C 19,4 C 44 % 1024,6 hPa 0,0 l/m 2 min 0 min 873 W/m 9,7 km/h (2 Bft) 95,74 %
07.08.2022 13:10 24,7 C 25,6 C 19,4 C 46 % 1024,6 hPa 0,0 l/m 2 min 0 min 873 W/m 9,7 km/h (2 Bft) 95,74 %
07.08.2022 13:12 24,8 C 25,6 C 19,4 C 45 % 1024,5 hPa 0,0 l/m 2 min 0 min 875 W/m 19,3 km/h (3 Bft) 95,74 %
07.08.2022 13:14 24,8 C 25,6 C 19,4 C 44 % 1024,5 hPa 0,0 l/m 2 min 0 min 879 W/m 16,1 km/h (3 Bft) 95,74 %
07.08.2022 13:16 24,8 C 25,6 C 19,4 C 44 % 1024,5 hPa 0,0 l/m 2 min 0 min 877 W/m 9,7 km/h (2 Bft) 95,74 %
07.08.2022 13:18 24,9 C 25,0 C 18,9 C 44 % 1024,4 hPa 0,0 l/m 2 min 0 min 879 W/m 12,9 km/h (3 Bft) 95,65 %
07.08.2022 13:20 24,8 C 25,0 C 18,9 C 44 % 1024,4 hPa 0,0 l/m 2 min 0 min 878 W/m 12,9 km/h (3 Bft) 95,74 %
07.08.2022 13:22 24,9 C 25,0 C 18,9 C 44 % 1024,4 hPa 0,0 l/m 2 min 0 min 880 W/m 9,7 km/h (2 Bft) 93,62 %
07.08.2022 13:24 24,9 C 25,0 C 19,4 C 44 % 1024,4 hPa 0,0 l/m 2 min 0 min 886 W/m 12,9 km/h (3 Bft) 95,74 %
07.08.2022 13:26 24,9 C 25,6 C 19,4 C 44 % 1024,3 hPa 0,0 l/m 2 min 0 min 885 W/m 6,4 km/h (2 Bft) 95,74 %
07.08.2022 13:28 25,0 C 25,6 C 19,4 C 45 % 1024,3 hPa 0,0 l/m 2 min 0 min 887 W/m 12,9 km/h (3 Bft) 95,74 %
07.08.2022 13:30 25,1 C 25,6 C 19,4 C 44 % 1024,3 hPa 0,0 l/m 2 min 0 min 883 W/m 19,3 km/h (3 Bft) 95,65 %
07.08.2022 13:32 25,0 C 25,0 C 18,9 C 44 % 1024,2 hPa 0,0 l/m 2 min 0 min 883 W/m 9,7 km/h (2 Bft) 97,87 %
07.08.2022 13:34 24,9 C 25,6 C 18,9 C 44 % 1024,3 hPa 0,0 l/m 2 min 0 min 884 W/m 6,4 km/h (2 Bft) 97,87 %
07.08.2022 13:36 25,0 C 26,1 C 19,4 C 45 % 1024,2 hPa 0,0 l/m 2 min 0 min 898 W/m 19,3 km/h (3 Bft) 97,87 %
07.08.2022 13:38 25,1 C 26,1 C 19,4 C 44 % 1024,2 hPa 0,0 l/m 2 min 0 min 889 W/m 6,4 km/h (2 Bft) 97,87 %
07.08.2022 13:40 25,1 C 27,2 C 19,4 C 45 % 1024,2 hPa 0,0 l/m 2 min 0 min 883 W/m 6,4 km/h (2 Bft) 97,87 %
07.08.2022 13:42 25,2 C 27,2 C 19,4 C 44 % 1024,1 hPa 0,0 l/m 2 min 0 min 882 W/m 9,7 km/h (2 Bft) 97,83 %
07.08.2022 13:44 25,2 C 27,2 C 19,4 C 44 % 1024,2 hPa 0,0 l/m 2 min 0 min 880 W/m 12,9 km/h (3 Bft) 97,87 %
07.08.2022 13:46 25,2 C 27,8 C 19,4 C 44 % 1024,2 hPa 0,0 l/m 2 min 0 min 881 W/m 9,7 km/h (2 Bft) 97,87 %
07.08.2022 13:48 25,2 C 27,2 C 19,4 C 43 % 1024,2 hPa 0,0 l/m 2 min 0 min 886 W/m 19,3 km/h (3 Bft) 97,87 %
07.08.2022 13:50 25,2 C 26,7 C 19,4 C 44 % 1024,1 hPa 0,0 l/m 2 min 0 min 884 W/m 12,9 km/h (3 Bft) 100,00 %
07.08.2022 13:52 25,2 C 27,2 C 19,4 C 44 % 1024,1 hPa 0,0 l/m 2 min 0 min 884 W/m 9,7 km/h (2 Bft) 95,74 %
07.08.2022 13:54 25,2 C 27,2 C 19,4 C 44 % 1024,1 hPa 0,0 l/m 2 min 0 min 886 W/m 9,7 km/h (2 Bft) 100,00 %
07.08.2022 13:56 25,2 C 27,2 C 20,0 C 44 % 1024,0 hPa 0,0 l/m 2 min 0 min 886 W/m 12,9 km/h (3 Bft) 100,00 %
07.08.2022 13:58 25,2 C 27,8 C 20,0 C 44 % 1024,1 hPa 0,0 l/m 2 min 0 min 884 W/m 16,1 km/h (3 Bft) 95,74 %
07.08.2022 14:00 25,3 C 27,8 C 20,0 C 44 % 1024,1 hPa 0,0 l/m 2 min 0 min 883 W/m 12,9 km/h (3 Bft) 100,00 %
07.08.2022 14:02 25,3 C 28,3 C 20,0 C 43 % 1024,1 hPa 0,0 l/m 2 min 0 min 885 W/m 9,7 km/h (2 Bft) 100,00 %
07.08.2022 14:04 25,3 C 28,9 C 20,0 C 43 % 1024,1 hPa 0,0 l/m 2 min 0 min 881 W/m 9,7 km/h (2 Bft) 100,00 %
07.08.2022 14:06 25,3 C 28,9 C 20,0 C 44 % 1024,0 hPa 0,0 l/m 2 min 0 min 880 W/m 9,7 km/h (2 Bft) 100,00 %
07.08.2022 14:08 25,3 C 28,9 C 20,0 C 43 % 1024,1 hPa 0,0 l/m 2 min 0 min 879 W/m 9,7 km/h (2 Bft) 100,00 %
07.08.2022 14:10 25,4 C 29,4 C 20,0 C 43 % 1024,1 hPa 0,0 l/m 2 min 0 min 881 W/m 6,4 km/h (2 Bft) 100,00 %
07.08.2022 14:12 25,5 C 29,4 C 20,0 C 43 % 1024,1 hPa 0,0 l/m 2 min 0 min 878 W/m 6,4 km/h (2 Bft) 97,87 %
07.08.2022 14:14 25,6 C 29,4 C 20,0 C 43 % 1024,1 hPa 0,0 l/m 2 min 0 min 876 W/m 9,7 km/h (2 Bft) 100,00 %
07.08.2022 14:16 25,5 C 28,3 C 19,4 C 42 % 1024,1 hPa 0,0 l/m 2 min 0 min 878 W/m 12,9 km/h (3 Bft) 97,87 %
07.08.2022 14:18 25,5 C 28,3 C 19,4 C 43 % 1024,1 hPa 0,0 l/m 2 min 0 min 880 W/m 6,4 km/h (2 Bft) 97,83 %
07.08.2022 14:20 25,5 C 27,8 C 19,4 C 42 % 1024,1 hPa 0,0 l/m 2 min 0 min 880 W/m 12,9 km/h (3 Bft) 100,00 %
07.08.2022 14:22 25,4 C 28,3 C 19,4 C 42 % 1024,0 hPa 0,0 l/m 2 min 0 min 877 W/m 6,4 km/h (2 Bft) 97,87 %
07.08.2022 14:24 25,5 C 28,3 C 20,0 C 43 % 1024,0 hPa 0,0 l/m 2 min 0 min 877 W/m 6,4 km/h (2 Bft) 100,00 %
07.08.2022 14:26 25,6 C 28,3 C 20,0 C 44 % 1024,0 hPa 0,0 l/m 2 min 0 min 875 W/m 19,3 km/h (3 Bft) 100,00 %
07.08.2022 14:28 25,6 C 28,3 C 20,0 C 43 % 1023,9 hPa 0,0 l/m 2 min 0 min 869 W/m 9,7 km/h (2 Bft) 100,00 %
07.08.2022 14:30 25,6 C 28,9 C 20,0 C 43 % 1023,9 hPa 0,0 l/m 2 min 0 min 867 W/m 9,7 km/h (2 Bft) 100,00 %
07.08.2022 14:32 25,7 C 29,4 C 20,0 C 44 % 1023,9 hPa 0,0 l/m 2 min 0 min 861 W/m 9,7 km/h (2 Bft) 100,00 %
07.08.2022 14:34 25,8 C 28,9 C 20,0 C 43 % 1023,9 hPa 0,0 l/m 2 min 0 min 863 W/m 12,9 km/h (3 Bft) 100,00 %
07.08.2022 14:36 25,8 C 28,9 C 20,0 C 42 % 1023,9 hPa 0,0 l/m 2 min 0 min 861 W/m 9,7 km/h (2 Bft) 97,87 %
07.08.2022 14:38 25,8 C 28,9 C 20,0 C 42 % 1023,8 hPa 0,0 l/m 2 min 0 min 863 W/m 6,4 km/h (2 Bft) 97,87 %
07.08.2022 14:40 25,9 C 29,4 C 20,0 C 43 % 1023,9 hPa 0,0 l/m 2 min 0 min 859 W/m 9,7 km/h (2 Bft) 97,87 %
07.08.2022 14:42 25,9 C 29,4 C 20,0 C 42 % 1023,8 hPa 0,0 l/m 2 min 0 min 859 W/m 12,9 km/h (3 Bft) 95,65 %
07.08.2022 14:44 26,0 C 30,0 C 20,0 C 43 % 1023,8 hPa 0,0 l/m 2 min 0 min 856 W/m 6,4 km/h (2 Bft) 97,87 %
07.08.2022 14:46 26,0 C 30,0 C 20,0 C 42 % 1023,8 hPa 0,0 l/m 2 min 0 min 855 W/m 9,7 km/h (2 Bft) 95,74 %
07.08.2022 14:48 26,1 C 30,0 C 20,0 C 43 % 1023,8 hPa 0,0 l/m 2 min 0 min 852 W/m 12,9 km/h (3 Bft) 97,87 %
07.08.2022 14:50 26,1 C 29,4 C 20,6 C 43 % 1023,8 hPa 0,0 l/m 2 min 0 min 848 W/m 19,3 km/h (3 Bft) 97,87 %
07.08.2022 14:52 26,1 C 29,4 C 20,0 C 43 % 1023,7 hPa 0,0 l/m 2 min 0 min 845 W/m 9,7 km/h (2 Bft) 97,87 %
07.08.2022 14:54 26,1 C 29,4 C 20,0 C 43 % 1023,7 hPa 0,0 l/m 2 min 0 min 847 W/m 6,4 km/h (2 Bft) 97,83 %
07.08.2022 14:56 26,1 C 28,9 C 20,0 C 43 % 1023,7 hPa 0,0 l/m 2 min 0 min 844 W/m 12,9 km/h (3 Bft) 93,62 %
07.08.2022 14:58 26,2 C 28,9 C 20,6 C 43 % 1023,8 hPa 0,0 l/m 2 min 0 min 843 W/m 9,7 km/h (2 Bft) 95,74 %
07.08.2022 15:00 26,2 C 28,9 C 20,6 C 43 % 1023,7 hPa 0,0 l/m 2 min 0 min 843 W/m 16,1 km/h (3 Bft) 93,62 %
07.08.2022 15:02 26,3 C 29,4 C 20,6 C 43 % 1023,8 hPa 0,0 l/m 2 min 0 min 833 W/m 12,9 km/h (3 Bft) 95,83 %
07.08.2022 15:04 26,2 C 29,4 C 20,6 C 43 % 1023,7 hPa 0,0 l/m 2 min 0 min 830 W/m 12,9 km/h (3 Bft) 93,48 %
07.08.2022 15:06 26,3 C 30,0 C 20,6 C 43 % 1023,7 hPa 0,0 l/m 2 min 0 min 823 W/m 9,7 km/h (2 Bft) 95,74 %
07.08.2022 15:08 26,3 C 29,4 C 20,6 C 43 % 1023,8 hPa 0,0 l/m 2 min 0 min 821 W/m 19,3 km/h (3 Bft) 95,74 %
07.08.2022 15:10 26,3 C 28,9 C 20,6 C 42 % 1023,8 hPa 0,0 l/m 2 min 0 min 817 W/m 19,3 km/h (3 Bft) 95,74 %
07.08.2022 15:12 26,2 C 28,9 C 20,6 C 43 % 1023,8 hPa 0,0 l/m 2 min 0 min 816 W/m 9,7 km/h (2 Bft) 95,74 %
07.08.2022 15:14 26,2 C 28,9 C 20,6 C 42 % 1023,7 hPa 0,0 l/m 2 min 0 min 813 W/m 12,9 km/h (3 Bft) 95,74 %
07.08.2022 15:16 26,2 C 29,4 C 20,6 C 43 % 1023,7 hPa 0,0 l/m 2 min 0 min 821 W/m 12,9 km/h (3 Bft) 93,48 %
07.08.2022 15:18 26,2 C 28,9 C 20,0 C 41 % 1023,7 hPa 0,0 l/m 2 min 0 min 820 W/m 12,9 km/h (3 Bft) 97,87 %
07.08.2022 15:20 26,2 C 29,4 C 20,0 C 42 % 1023,6 hPa 0,0 l/m 2 min 0 min 823 W/m 12,9 km/h (3 Bft) 93,62 %
07.08.2022 15:22 26,3 C 29,4 C 20,6 C 41 % 1023,6 hPa 0,0 l/m 2 min 0 min 817 W/m 12,9 km/h (3 Bft) 97,87 %
07.08.2022 15:24 26,3 C 29,4 C 20,6 C 42 % 1023,6 hPa 0,0 l/m 2 min 0 min 813 W/m 9,7 km/h (2 Bft) 97,87 %
07.08.2022 15:26 26,4 C 29,4 C 20,6 C 42 % 1023,6 hPa 0,0 l/m 2 min 0 min 806 W/m 6,4 km/h (2 Bft) 97,87 %
07.08.2022 15:28 26,6 C 30,0 C 20,6 C 42 % 1023,5 hPa 0,0 l/m 2 min 0 min 803 W/m 9,7 km/h (2 Bft) 97,87 %
07.08.2022 15:30 26,6 C 29,4 C 20,6 C 42 % 1023,6 hPa 0,0 l/m 2 min 0 min 803 W/m 12,9 km/h (3 Bft) 97,83 %
07.08.2022 15:32 26,6 C 29,4 C 20,6 C 42 % 1023,5 hPa 0,0 l/m 2 min 0 min 799 W/m 6,4 km/h (2 Bft) 100,00 %
07.08.2022 15:34 26,7 C 29,4 C 20,6 C 42 % 1023,5 hPa 0,0 l/m 2 min 0 min 797 W/m 12,9 km/h (3 Bft) 97,87 %
07.08.2022 15:36 26,6 C 29,4 C 20,6 C 42 % 1023,4 hPa 0,0 l/m 2 min 0 min 795 W/m 12,9 km/h (3 Bft) 97,87 %
07.08.2022 15:38 26,6 C 30,0 C 20,6 C 42 % 1023,4 hPa 0,0 l/m 2 min 0 min 787 W/m 12,9 km/h (3 Bft) 100,00 %
07.08.2022 15:40 26,6 C 30,0 C 20,6 C 43 % 1023,4 hPa 0,0 l/m 2 min 0 min 784 W/m 12,9 km/h (3 Bft) 100,00 %
07.08.2022 15:42 26,7 C 30,6 C 21,1 C 43 % 1023,3 hPa 0,0 l/m 2 min 0 min 796 W/m 9,7 km/h (2 Bft) 100,00 %
07.08.2022 15:44 26,7 C 30,6 C 21,1 C 43 % 1023,3 hPa 0,0 l/m 2 min 0 min 786 W/m 9,7 km/h (2 Bft) 97,87 %
07.08.2022 15:46 26,7 C 30,6 C 21,1 C 43 % 1023,3 hPa 0,0 l/m 2 min 0 min 776 W/m 16,1 km/h (3 Bft) 100,00 %
07.08.2022 15:48 26,7 C 30,0 C 21,1 C 43 % 1023,4 hPa 0,0 l/m 2 min 0 min 761 W/m 16,1 km/h (3 Bft) 100,00 %
07.08.2022 15:50 26,7 C 29,4 C 20,6 C 42 % 1023,3 hPa 0,0 l/m 2 min 0 min 762 W/m 16,1 km/h (3 Bft) 97,87 %
07.08.2022 15:52 26,6 C 29,4 C 20,6 C 43 % 1023,3 hPa 0,0 l/m 2 min 0 min 757 W/m 12,9 km/h (3 Bft) 97,83 %
07.08.2022 15:54 26,6 C 29,4 C 20,6 C 42 % 1023,3 hPa 0,0 l/m 2 min 0 min 760 W/m 12,9 km/h (3 Bft) 97,87 %
07.08.2022 15:56 26,6 C 29,4 C 20,6 C 42 % 1023,3 hPa 0,0 l/m 2 min 0 min 760 W/m 3,2 km/h (1 Bft) 97,87 %
07.08.2022 15:58 26,6 C 29,4 C 20,6 C 42 % 1023,3 hPa 0,0 l/m 2 min 0 min 755 W/m 9,7 km/h (2 Bft) 97,87 %
07.08.2022 16:00 26,6 C 29,4 C 20,6 C 42 % 1023,2 hPa 0,0 l/m 2 min 0 min 753 W/m 9,7 km/h (2 Bft) 97,87 %
07.08.2022 16:02 26,5 C 30,0 C 20,6 C 43 % 1023,3 hPa 0,0 l/m 2 min 0 min 750 W/m 12,9 km/h (3 Bft) 97,87 %
07.08.2022 16:04 26,5 C 30,6 C 20,6 C 43 % 1023,3 hPa 0,0 l/m 2 min 0 min 747 W/m 9,7 km/h (2 Bft) 97,83 %
07.08.2022 16:06 26,6 C 30,6 C 20,6 C 42 % 1023,2 hPa 0,0 l/m 2 min 0 min 750 W/m 6,4 km/h (2 Bft) 95,74 %
07.08.2022 16:08 26,6 C 30,6 C 20,6 C 41 % 1023,2 hPa 0,0 l/m 2 min 0 min 743 W/m 9,7 km/h (2 Bft) 97,87 %
07.08.2022 16:10 26,6 C 30,6 C 20,6 C 42 % 1023,1 hPa 0,0 l/m 2 min 0 min 733 W/m 9,7 km/h (2 Bft) 97,87 %
07.08.2022 16:12 26,6 C 31,7 C 21,1 C 42 % 1023,1 hPa 0,0 l/m 2 min 0 min 726 W/m 19,3 km/h (3 Bft) 97,87 %
07.08.2022 16:14 26,7 C 31,7 C 21,1 C 43 % 1023,2 hPa 0,0 l/m 2 min 0 min 727 W/m 19,3 km/h (3 Bft) 97,87 %
07.08.2022 16:16 26,7 C 31,1 C 21,1 C 43 % 1023,1 hPa 0,0 l/m 2 min 0 min 724 W/m 12,9 km/h (3 Bft) 97,83 %
07.08.2022 16:18 26,7 C 31,1 C 21,1 C 43 % 1023,1 hPa 0,0 l/m 2 min 0 min 717 W/m 16,1 km/h (3 Bft) 97,87 %
07.08.2022 16:20 26,7 C 32,2 C 21,1 C 43 % 1023,1 hPa 0,0 l/m 2 min 0 min 708 W/m 6,4 km/h (2 Bft) 97,87 %
07.08.2022 16:22 26,8 C 32,2 C 21,1 C 42 % 1023,1 hPa 0,0 l/m 2 min 0 min 705 W/m 12,9 km/h (3 Bft) 97,87 %
07.08.2022 16:24 26,7 C 31,7 C 21,1 C 42 % 1023,1 hPa 0,0 l/m 2 min 0 min 696 W/m 12,9 km/h (3 Bft) 97,87 %
07.08.2022 16:26 26,7 C 31,1 C 21,1 C 42 % 1023,1 hPa 0,0 l/m 2 min 0 min 689 W/m 12,9 km/h (3 Bft) 97,87 %
07.08.2022 16:28 26,7 C 31,7 C 21,1 C 43 % 1023,1 hPa 0,0 l/m 2 min 0 min 698 W/m 12,9 km/h (3 Bft) 97,83 %
07.08.2022 16:30 26,7 C 31,7 C 21,1 C 43 % 1023,1 hPa 0,0 l/m 2 min 0 min 691 W/m 9,7 km/h (2 Bft) 97,87 %
07.08.2022 16:32 26,7 C 32,2 C 21,1 C 43 % 1023,1 hPa 0,0 l/m 2 min 0 min 689 W/m 16,1 km/h (3 Bft) 95,74 %
07.08.2022 16:34 26,7 C 31,7 C 21,1 C 43 % 1023,0 hPa 0,0 l/m 2 min 0 min 682 W/m 12,9 km/h (3 Bft) 97,87 %
07.08.2022 16:36 26,6 C 31,1 C 21,1 C 43 % 1023,0 hPa 0,0 l/m 2 min 0 min 678 W/m 12,9 km/h (3 Bft) 95,74 %
07.08.2022 16:38 26,7 C 31,1 C 21,1 C 43 % 1023,0 hPa 0,0 l/m 2 min 0 min 674 W/m 16,1 km/h (3 Bft) 95,74 %
07.08.2022 16:40 26,7 C 31,7 C 21,1 C 43 % 1023,0 hPa 0,0 l/m 2 min 0 min 669 W/m 9,7 km/h (2 Bft) 97,83 %
07.08.2022 16:42 26,6 C 31,1 C 21,1 C 43 % 1023,0 hPa 0,0 l/m 2 min 0 min 662 W/m 12,9 km/h (3 Bft) 95,74 %
07.08.2022 16:44 26,6 C 31,7 C 21,1 C 44 % 1023,0 hPa 0,0 l/m 2 min 0 min 661 W/m 12,9 km/h (3 Bft) 100,00 %
07.08.2022 16:46 26,6 C 32,8 C 21,1 C 43 % 1023,0 hPa 0,0 l/m 2 min 0 min 658 W/m 12,9 km/h (3 Bft) 97,87 %
07.08.2022 16:48 26,6 C 32,8 C 21,7 C 43 % 1023,0 hPa 0,0 l/m 2 min 0 min 651 W/m 6,4 km/h (2 Bft) 97,87 %
07.08.2022 16:50 26,6 C 32,8 C 21,7 C 43 % 1022,9 hPa 0,0 l/m 2 min 0 min 641 W/m 16,1 km/h (3 Bft) 97,87 %
07.08.2022 16:52 26,7 C 32,8 C 21,7 C 43 % 1022,9 hPa 0,0 l/m 2 min 0 min 642 W/m 19,3 km/h (3 Bft) 97,83 %
07.08.2022 16:54 26,7 C 32,8 C 21,7 C 43 % 1023,0 hPa 0,0 l/m 2 min 0 min 631 W/m 9,7 km/h (2 Bft) 97,87 %
07.08.2022 16:56 26,6 C 32,8 C 21,1 C 43 % 1022,9 hPa 0,0 l/m 2 min 0 min 634 W/m 9,7 km/h (2 Bft) 100,00 %
07.08.2022 16:58 26,6 C 32,8 C 21,7 C 43 % 1022,9 hPa 0,0 l/m 2 min 0 min 632 W/m 9,7 km/h (2 Bft) 97,87 %
07.08.2022 17:00 26,5 C 32,8 C 21,7 C 43 % 1022,9 hPa 0,0 l/m 2 min 0 min 624 W/m 16,1 km/h (3 Bft) 95,74 %
07.08.2022 17:02 26,6 C 32,8 C 21,7 C 43 % 1022,9 hPa 0,0 l/m 2 min 0 min 618 W/m 22,5 km/h (4 Bft) 95,74 %
07.08.2022 17:04 26,5 C 32,2 C 21,7 C 43 % 1022,9 hPa 0,0 l/m 2 min 0 min 611 W/m 9,7 km/h (2 Bft) 95,65 %
07.08.2022 17:06 26,5 C 32,8 C 21,7 C 44 % 1022,8 hPa 0,0 l/m 2 min 0 min 605 W/m 6,4 km/h (2 Bft) 97,87 %
07.08.2022 17:08 26,5 C 32,8 C 22,2 C 45 % 1022,8 hPa 0,0 l/m 2 min 0 min 599 W/m 12,9 km/h (3 Bft) 93,62 %
07.08.2022 17:10 26,6 C 32,8 C 22,2 C 44 % 1022,9 hPa 0,0 l/m 2 min 0 min 596 W/m 16,1 km/h (3 Bft) 95,74 %
07.08.2022 17:12 26,5 C 32,2 C 21,7 C 44 % 1022,9 hPa 0,0 l/m 2 min 0 min 590 W/m 16,1 km/h (3 Bft) 93,62 %
07.08.2022 17:14 26,4 C 31,1 C 21,7 C 44 % 1022,9 hPa 0,0 l/m 2 min 0 min 589 W/m 16,1 km/h (3 Bft) 95,74 %
07.08.2022 17:16 26,2 C 31,1 C 21,1 C 43 % 1022,9 hPa 0,0 l/m 2 min 0 min 584 W/m 12,9 km/h (3 Bft) 97,83 %
07.08.2022 17:18 26,2 C 31,7 C 21,1 C 44 % 1022,9 hPa 0,0 l/m 2 min 0 min 578 W/m 9,7 km/h (2 Bft) 95,74 %
07.08.2022 17:20 26,3 C 31,7 C 21,7 C 45 % 1022,9 hPa 0,0 l/m 2 min 0 min 573 W/m 9,7 km/h (2 Bft) 97,87 %
07.08.2022 17:22 26,2 C 31,1 C 21,7 C 44 % 1022,9 hPa 0,0 l/m 2 min 0 min 561 W/m 19,3 km/h (3 Bft) 100,00 %
07.08.2022 17:24 26,2 C 31,1 C 21,7 C 44 % 1022,8 hPa 0,0 l/m 2 min 0 min 552 W/m 12,9 km/h (3 Bft) 97,87 %
07.08.2022 17:26 26,2 C 31,1 C 22,2 C 44 % 1022,8 hPa 0,0 l/m 2 min 0 min 552 W/m 25,7 km/h (4 Bft) 97,87 %
07.08.2022 17:28 26,2 C 30,6 C 22,2 C 44 % 1022,8 hPa 0,0 l/m 2 min 0 min 550 W/m 19,3 km/h (3 Bft) 95,65 %
07.08.2022 17:30 26,2 C 31,1 C 22,2 C 44 % 1022,8 hPa 0,0 l/m 2 min 0 min 552 W/m 16,1 km/h (3 Bft) 95,74 %
07.08.2022 17:32 26,1 C 31,1 C 22,2 C 45 % 1022,8 hPa 0,0 l/m 2 min 0 min 543 W/m 12,9 km/h (3 Bft) 97,96 %
07.08.2022 17:34 26,1 C 31,1 C 22,2 C 45 % 1022,7 hPa 0,0 l/m 2 min 0 min 536 W/m 19,3 km/h (3 Bft) 95,74 %
07.08.2022 17:36 26,1 C 30,6 C 22,2 C 45 % 1022,7 hPa 0,0 l/m 2 min 0 min 530 W/m 22,5 km/h (4 Bft) 97,87 %
07.08.2022 17:38 26,1 C 31,1 C 22,2 C 44 % 1022,7 hPa 0,0 l/m 2 min 0 min 529 W/m 22,5 km/h (4 Bft) 95,74 %
07.08.2022 17:40 26,1 C 31,1 C 22,2 C 45 % 1022,7 hPa 0,0 l/m 2 min 0 min 520 W/m 16,1 km/h (3 Bft) 97,87 %
07.08.2022 17:42 26,1 C 31,1 C 22,2 C 46 % 1022,7 hPa 0,0 l/m 2 min 0 min 518 W/m 25,7 km/h (4 Bft) 100,00 %
07.08.2022 17:44 26,1 C 31,1 C 22,2 C 45 % 1022,7 hPa 0,0 l/m 2 min 0 min 513 W/m 12,9 km/h (3 Bft) 97,87 %
07.08.2022 17:46 26,0 C 30,6 C 21,7 C 45 % 1022,7 hPa 0,0 l/m 2 min 0 min 510 W/m 9,7 km/h (2 Bft) 97,87 %
07.08.2022 17:48 25,9 C 30,6 C 21,7 C 46 % 1022,6 hPa 0,0 l/m 2 min 0 min 502 W/m 12,9 km/h (3 Bft) 100,00 %
07.08.2022 17:50 26,0 C 30,0 C 22,2 C 45 % 1022,6 hPa 0,0 l/m 2 min 0 min 501 W/m 29,0 km/h (5 Bft) 100,00 %
07.08.2022 17:52 26,0 C 30,6 C 22,2 C 45 % 1022,6 hPa 0,0 l/m 2 min 0 min 501 W/m 25,7 km/h (4 Bft) 97,87 %
07.08.2022 17:54 25,9 C 31,1 C 22,2 C 45 % 1022,6 hPa 0,0 l/m 2 min 0 min 496 W/m 12,9 km/h (3 Bft) 100,00 %
07.08.2022 17:56 26,0 C 31,7 C 22,2 C 45 % 1022,6 hPa 0,0 l/m 2 min 0 min 489 W/m 12,9 km/h (3 Bft) 97,87 %
07.08.2022 17:58 26,0 C 31,1 C 22,2 C 46 % 1022,6 hPa 0,0 l/m 2 min 0 min 474 W/m 12,9 km/h (3 Bft) 100,00 %
07.08.2022 18:00 25,9 C 30,0 C 22,2 C 45 % 1022,6 hPa 0,0 l/m 2 min 0 min 378 W/m 19,3 km/h (3 Bft) 100,00 %
07.08.2022 18:02 25,9 C 29,4 C 22,2 C 45 % 1022,6 hPa 0,0 l/m 2 min 0 min 385 W/m 22,5 km/h (4 Bft) 100,00 %
07.08.2022 18:04 26,0 C 30,0 C 22,2 C 45 % 1022,5 hPa 0,0 l/m 2 min 0 min 433 W/m 19,3 km/h (3 Bft) 100,00 %
07.08.2022 18:08 25,8 C 29,4 C 21,7 C 46 % 1022,6 hPa 0,0 l/m 4 min 0 min 388 W/m 25,7 km/h (4 Bft) 100,00 %
07.08.2022 18:10 25,8 C 28,9 C 21,7 C 45 % 1022,5 hPa 0,0 l/m 2 min 0 min 294 W/m 12,9 km/h (3 Bft) 100,00 %
07.08.2022 18:12 25,7 C 28,3 C 21,7 C 46 % 1022,5 hPa 0,0 l/m 2 min 0 min 240 W/m 22,5 km/h (4 Bft) 100,00 %
07.08.2022 18:14 25,6 C 28,3 C 21,7 C 46 % 1022,5 hPa 0,0 l/m 2 min 0 min 313 W/m 6,4 km/h (2 Bft) 97,87 %
07.08.2022 18:16 25,6 C 29,4 C 21,7 C 47 % 1022,5 hPa 0,0 l/m 2 min 0 min 368 W/m 12,9 km/h (3 Bft) 100,00 %
07.08.2022 18:18 25,6 C 29,4 C 21,7 C 46 % 1022,5 hPa 0,0 l/m 2 min 0 min 379 W/m 6,4 km/h (2 Bft) 100,00 %
07.08.2022 18:20 25,6 C 29,4 C 21,7 C 47 % 1022,5 hPa 0,0 l/m 2 min 0 min 345 W/m 16,1 km/h (3 Bft) 100,00 %
07.08.2022 18:22 25,6 C 29,4 C 21,7 C 47 % 1022,5 hPa 0,0 l/m 2 min 0 min 333 W/m 9,7 km/h (2 Bft) 100,00 %
07.08.2022 18:24 25,6 C 29,4 C 21,7 C 47 % 1022,5 hPa 0,0 l/m 2 min 0 min 311 W/m 9,7 km/h (2 Bft) 100,00 %
07.08.2022 18:26 25,6 C 28,9 C 21,7 C 46 % 1022,5 hPa 0,0 l/m 2 min 0 min 297 W/m 16,1 km/h (3 Bft) 100,00 %
07.08.2022 18:28 25,5 C 28,9 C 21,7 C 46 % 1022,6 hPa 0,0 l/m 2 min 0 min 306 W/m 16,1 km/h (3 Bft) 100,00 %
07.08.2022 18:30 25,4 C 30,0 C 21,7 C 47 % 1022,5 hPa 0,0 l/m 2 min 0 min 405 W/m 6,4 km/h (2 Bft) 97,87 %
07.08.2022 18:32 25,5 C 30,6 C 21,7 C 47 % 1022,5 hPa 0,0 l/m 2 min 0 min 391 W/m 22,5 km/h (4 Bft) 97,87 %
07.08.2022 18:34 25,5 C 29,4 C 21,7 C 46 % 1022,5 hPa 0,0 l/m 2 min 0 min 334 W/m 19,3 km/h (3 Bft) 100,00 %
07.08.2022 18:36 25,4 C 29,4 C 21,7 C 46 % 1022,6 hPa 0,0 l/m 2 min 0 min 327 W/m 16,1 km/h (3 Bft) 100,00 %
07.08.2022 18:38 25,4 C 28,9 C 21,1 C 46 % 1022,5 hPa 0,0 l/m 2 min 0 min 354 W/m 12,9 km/h (3 Bft) 100,00 %
07.08.2022 18:40 25,4 C 30,0 C 21,1 C 47 % 1022,5 hPa 0,0 l/m 2 min 0 min 383 W/m 9,7 km/h (2 Bft) 97,83 %
07.08.2022 18:42 25,4 C 30,0 C 21,1 C 46 % 1022,5 hPa 0,0 l/m 2 min 0 min 372 W/m 25,7 km/h (4 Bft) 97,87 %
07.08.2022 18:44 25,4 C 30,0 C 21,1 C 47 % 1022,5 hPa 0,0 l/m 2 min 0 min 348 W/m 16,1 km/h (3 Bft) 97,87 %
07.08.2022 18:46 25,4 C 30,6 C 21,1 C 47 % 1022,5 hPa 0,0 l/m 2 min 0 min 334 W/m 12,9 km/h (3 Bft) 97,87 %
07.08.2022 18:48 25,5 C 31,1 C 21,1 C 47 % 1022,5 hPa 0,0 l/m 2 min 0 min 360 W/m 12,9 km/h (3 Bft) 97,87 %
07.08.2022 18:50 25,5 C 30,6 C 20,6 C 46 % 1022,5 hPa 0,0 l/m 2 min 0 min 358 W/m 19,3 km/h (3 Bft) 95,74 %
07.08.2022 18:52 25,4 C 30,6 C 20,6 C 47 % 1022,5 hPa 0,0 l/m 2 min 0 min 351 W/m 9,7 km/h (2 Bft) 95,65 %
07.08.2022 18:54 25,4 C 30,0 C 20,6 C 46 % 1022,5 hPa 0,0 l/m 2 min 0 min 338 W/m 16,1 km/h (3 Bft) 97,87 %
07.08.2022 18:56 25,3 C 30,0 C 20,6 C 46 % 1022,5 hPa 0,0 l/m 2 min 0 min 337 W/m 16,1 km/h (3 Bft) 97,87 %
07.08.2022 18:58 25,2 C 29,4 C 20,6 C 46 % 1022,5 hPa 0,0 l/m 2 min 0 min 318 W/m 16,1 km/h (3 Bft) 95,74 %
07.08.2022 19:00 25,2 C 28,9 C 20,6 C 47 % 1022,4 hPa 0,0 l/m 2 min 0 min 276 W/m 19,3 km/h (3 Bft) 97,87 %
07.08.2022 19:02 25,1 C 27,8 C 20,0 C 47 % 1022,5 hPa 0,0 l/m 2 min 0 min 186 W/m 12,9 km/h (3 Bft) 97,87 %
07.08.2022 19:04 25,0 C 26,7 C 20,0 C 47 % 1022,5 hPa 0,0 l/m 2 min 0 min 241 W/m 9,7 km/h (2 Bft) 97,83 %
07.08.2022 19:06 24,9 C 26,1 C 20,0 C 48 % 1022,5 hPa 0,0 l/m 2 min 0 min 275 W/m 12,9 km/h (3 Bft) 97,87 %
07.08.2022 19:08 24,8 C 25,6 C 20,0 C 47 % 1022,4 hPa 0,0 l/m 2 min 0 min 276 W/m 12,9 km/h (3 Bft) 95,74 %
07.08.2022 19:10 24,7 C 25,0 C 20,0 C 47 % 1022,4 hPa 0,0 l/m 2 min 0 min 222 W/m 12,9 km/h (3 Bft) 95,74 %
07.08.2022 19:12 24,7 C 24,4 C 20,0 C 47 % 1022,5 hPa 0,0 l/m 2 min 0 min 200 W/m 22,5 km/h (4 Bft) 95,74 %
07.08.2022 19:14 24,6 C 23,9 C 20,0 C 47 % 1022,4 hPa 0,0 l/m 2 min 0 min 178 W/m 19,3 km/h (3 Bft) 95,74 %
07.08.2022 19:16 24,6 C 23,9 C 20,0 C 48 % 1022,5 hPa 0,0 l/m 2 min 0 min 178 W/m 12,9 km/h (3 Bft) 97,83 %
07.08.2022 19:18 24,6 C 23,9 C 20,0 C 48 % 1022,5 hPa 0,0 l/m 2 min 0 min 181 W/m 9,7 km/h (2 Bft) 97,87 %
07.08.2022 19:20 24,4 C 23,9 C 19,4 C 48 % 1022,5 hPa 0,0 l/m 2 min 0 min 188 W/m 16,1 km/h (3 Bft) 100,00 %
07.08.2022 19:22 24,4 C 23,3 C 19,4 C 48 % 1022,5 hPa 0,0 l/m 0 min 0 min 113 W/m 16,1 km/h (3 Bft) 97,87 %
07.08.2022 19:24 24,3 C 23,3 C 19,4 C 49 % 1022,5 hPa 0,0 l/m 0 min 0 min 86 W/m 12,9 km/h (3 Bft) 93,62 %
07.08.2022 19:26 24,2 C 23,3 C 19,4 C 48 % 1022,5 hPa 0,0 l/m 0 min 0 min 77 W/m 25,7 km/h (4 Bft) 97,87 %
07.08.2022 19:28 24,1 C 23,3 C 19,4 C 49 % 1022,5 hPa 0,0 l/m 0 min 0 min 75 W/m 12,9 km/h (3 Bft) 97,83 %
07.08.2022 19:30 24,1 C 23,3 C 19,4 C 49 % 1022,6 hPa 0,0 l/m 0 min 0 min 70 W/m 9,7 km/h (2 Bft) 97,87 %
07.08.2022 19:32 24,0 C 23,3 C 19,4 C 49 % 1022,5 hPa 0,0 l/m 0 min 0 min 70 W/m 9,7 km/h (2 Bft) 95,74 %
07.08.2022 19:34 23,9 C 23,3 C 19,4 C 49 % 1022,6 hPa 0,0 l/m 0 min 0 min 70 W/m 16,1 km/h (3 Bft) 95,74 %
07.08.2022 19:36 23,8 C 23,3 C 19,4 C 49 % 1022,5 hPa 0,0 l/m 0 min 0 min 68 W/m 16,1 km/h (3 Bft) 93,62 %
07.08.2022 19:38 23,8 C 23,3 C 18,9 C 49 % 1022,6 hPa 0,0 l/m 0 min 0 min 66 W/m 19,3 km/h (3 Bft) 93,62 %
07.08.2022 19:40 23,7 C 22,8 C 18,9 C 50 % 1022,6 hPa 0,0 l/m 0 min 0 min 63 W/m 12,9 km/h (3 Bft) 95,65 %
07.08.2022 19:42 23,7 C 22,8 C 18,9 C 50 % 1022,5 hPa 0,0 l/m 0 min 0 min 59 W/m 12,9 km/h (3 Bft) 95,74 %
07.08.2022 19:44 23,7 C 22,8 C 18,9 C 50 % 1022,5 hPa 0,0 l/m 0 min 0 min 52 W/m 9,7 km/h (2 Bft) 95,74 %
07.08.2022 19:46 23,6 C 22,8 C 18,9 C 50 % 1022,5 hPa 0,0 l/m 0 min 0 min 47 W/m 9,7 km/h (2 Bft) 95,74 %
07.08.2022 19:48 23,6 C 22,8 C 18,9 C 51 % 1022,6 hPa 0,0 l/m 0 min 0 min 46 W/m 9,7 km/h (2 Bft) 95,74 %
07.08.2022 19:50 23,5 C 22,8 C 18,9 C 51 % 1022,5 hPa 0,0 l/m 0 min 0 min 42 W/m 12,9 km/h (3 Bft) 95,74 %
07.08.2022 19:52 23,5 C 22,8 C 18,9 C 51 % 1022,5 hPa 0,0 l/m 0 min 0 min 40 W/m 9,7 km/h (2 Bft) 95,65 %
07.08.2022 19:54 23,4 C 22,8 C 18,9 C 50 % 1022,6 hPa 0,0 l/m 0 min 0 min 39 W/m 12,9 km/h (3 Bft) 91,49 %
07.08.2022 19:56 23,4 C 22,2 C 18,9 C 50 % 1022,5 hPa 0,0 l/m 0 min 0 min 37 W/m 12,9 km/h (3 Bft) 95,74 %
07.08.2022 19:58 23,3 C 22,2 C 18,9 C 51 % 1022,5 hPa 0,0 l/m 0 min 0 min 37 W/m 6,4 km/h (2 Bft) 95,74 %
07.08.2022 20:00 23,3 C 22,2 C 18,3 C 51 % 1022,5 hPa 0,0 l/m 0 min 0 min 35 W/m 12,9 km/h (3 Bft) 95,74 %
07.08.2022 20:02 23,3 C 22,2 C 18,3 C 51 % 1022,6 hPa 0,0 l/m 0 min 0 min 35 W/m 9,7 km/h (2 Bft) 97,87 %
07.08.2022 20:04 23,2 C 22,2 C 18,3 C 51 % 1022,6 hPa 0,0 l/m 0 min 0 min 35 W/m 12,9 km/h (3 Bft) 97,83 %
07.08.2022 20:06 23,2 C 22,2 C 18,3 C 51 % 1022,6 hPa 0,0 l/m 0 min 0 min 35 W/m 9,7 km/h (2 Bft) 97,87 %
07.08.2022 20:08 23,2 C 22,2 C 18,3 C 51 % 1022,6 hPa 0,0 l/m 0 min 0 min 36 W/m 16,1 km/h (3 Bft) 93,62 %
07.08.2022 20:10 23,1 C 22,2 C 18,3 C 51 % 1022,6 hPa 0,0 l/m 0 min 0 min 38 W/m 9,7 km/h (2 Bft) 97,87 %
07.08.2022 20:12 23,1 C 22,2 C 18,3 C 51 % 1022,6 hPa 0,0 l/m 0 min 0 min 39 W/m 9,7 km/h (2 Bft) 95,74 %
07.08.2022 20:14 23,0 C 22,2 C 18,3 C 52 % 1022,6 hPa 0,0 l/m 0 min 0 min 36 W/m 9,7 km/h (2 Bft) 97,87 %
07.08.2022 20:16 23,0 C 22,2 C 18,3 C 51 % 1022,6 hPa 0,0 l/m 0 min 0 min 34 W/m 16,1 km/h (3 Bft) 97,83 %
07.08.2022 20:18 22,9 C 22,2 C 18,3 C 52 % 1022,6 hPa 0,0 l/m 0 min 0 min 33 W/m 9,7 km/h (2 Bft) 100,00 %
07.08.2022 20:20 22,9 C 22,2 C 18,3 C 52 % 1022,6 hPa 0,0 l/m 0 min 0 min 32 W/m 9,7 km/h (2 Bft) 100,00 %
07.08.2022 20:22 22,9 C 22,2 C 18,3 C 52 % 1022,7 hPa 0,0 l/m 0 min 0 min 30 W/m 6,4 km/h (2 Bft) 100,00 %
07.08.2022 20:24 22,8 C 21,7 C 17,8 C 52 % 1022,7 hPa 0,0 l/m 0 min 0 min 31 W/m 9,7 km/h (2 Bft) 100,00 %
07.08.2022 20:26 22,8 C 21,7 C 17,8 C 53 % 1022,7 hPa 0,0 l/m 0 min 0 min 33 W/m 12,9 km/h (3 Bft) 97,83 %
07.08.2022 20:28 22,8 C 21,7 C 17,8 C 52 % 1022,8 hPa 0,0 l/m 0 min 0 min 33 W/m 12,9 km/h (3 Bft) 100,00 %
07.08.2022 20:30 22,7 C 21,7 C 17,8 C 52 % 1022,8 hPa 0,0 l/m 0 min 0 min 33 W/m 12,9 km/h (3 Bft) 97,87 %
07.08.2022 20:32 22,7 C 21,7 C 17,8 C 52 % 1022,7 hPa 0,0 l/m 0 min 0 min 33 W/m 12,9 km/h (3 Bft) 100,00 %
07.08.2022 20:34 22,6 C 21,7 C 17,8 C 53 % 1022,8 hPa 0,0 l/m 0 min 0 min 32 W/m 9,7 km/h (2 Bft) 97,87 %
07.08.2022 20:36 22,6 C 21,7 C 17,8 C 53 % 1022,8 hPa 0,0 l/m 0 min 0 min 31 W/m 6,4 km/h (2 Bft) 97,87 %
07.08.2022 20:38 22,6 C 21,7 C 17,8 C 53 % 1022,8 hPa 0,0 l/m 0 min 0 min 30 W/m 16,1 km/h (3 Bft) 100,00 %
07.08.2022 20:40 22,5 C 21,7 C 17,8 C 53 % 1022,8 hPa 0,0 l/m 0 min 0 min 29 W/m 9,7 km/h (2 Bft) 97,83 %
07.08.2022 20:42 22,4 C 21,1 C 17,8 C 53 % 1022,9 hPa 0,0 l/m 2 min 0 min 28 W/m 12,9 km/h (3 Bft) 97,87 %
07.08.2022 20:44 22,4 C 21,1 C 17,8 C 53 % 1022,8 hPa 0,0 l/m 2 min 0 min 27 W/m 9,7 km/h (2 Bft) 97,87 %
07.08.2022 20:46 22,4 C 21,1 C 17,8 C 53 % 1022,9 hPa 0,0 l/m 2 min 0 min 26 W/m 6,4 km/h (2 Bft) 97,87 %
07.08.2022 20:48 22,3 C 21,1 C 17,8 C 54 % 1022,9 hPa 0,0 l/m 2 min 0 min 25 W/m 6,4 km/h (2 Bft) 97,87 %
07.08.2022 20:50 22,3 C 21,1 C 17,8 C 54 % 1022,9 hPa 0,0 l/m 2 min 0 min 25 W/m 9,7 km/h (2 Bft) 97,83 %
07.08.2022 20:52 22,2 C 21,1 C 17,8 C 54 % 1022,8 hPa 0,0 l/m 2 min 0 min 23 W/m 9,7 km/h (2 Bft) 93,62 %
07.08.2022 20:54 22,2 C 21,1 C 17,2 C 54 % 1022,9 hPa 0,0 l/m 2 min 0 min 22 W/m 6,4 km/h (2 Bft) 97,87 %
07.08.2022 20:56 22,2 C 21,1 C 17,2 C 54 % 1022,9 hPa 0,0 l/m 2 min 0 min 21 W/m 12,9 km/h (3 Bft) 97,87 %
07.08.2022 20:58 22,1 C 21,1 C 17,2 C 54 % 1022,9 hPa 0,0 l/m 0 min 0 min 19 W/m 9,7 km/h (2 Bft) 95,74 %
07.08.2022 21:00 22,1 C 21,1 C 17,2 C 55 % 1022,9 hPa 0,0 l/m 0 min 0 min 18 W/m 9,7 km/h (2 Bft) 97,87 %
07.08.2022 21:02 22,1 C 21,1 C 17,2 C 55 % 1022,9 hPa 0,0 l/m 0 min 0 min 17 W/m 6,4 km/h (2 Bft) 93,62 %
07.08.2022 21:04 22,1 C 21,1 C 17,2 C 55 % 1022,9 hPa 0,0 l/m 0 min 0 min 16 W/m 6,4 km/h (2 Bft) 97,83 %
07.08.2022 21:06 22,0 C 20,6 C 17,2 C 55 % 1023,0 hPa 0,0 l/m 0 min 0 min 14 W/m 9,7 km/h (2 Bft) 97,87 %
07.08.2022 21:08 21,9 C 20,6 C 17,2 C 55 % 1023,0 hPa 0,0 l/m 0 min 0 min 12 W/m 6,4 km/h (2 Bft) 97,87 %
07.08.2022 21:10 21,9 C 20,6 C 17,2 C 55 % 1023,0 hPa 0,0 l/m 0 min 0 min 11 W/m 3,2 km/h (1 Bft) 95,74 %
07.08.2022 21:12 21,9 C 20,6 C 17,2 C 56 % 1023,0 hPa 0,0 l/m 0 min 0 min 9 W/m 9,7 km/h (2 Bft) 97,87 %
07.08.2022 21:14 21,8 C 20,6 C 16,7 C 56 % 1023,1 hPa 0,0 l/m 0 min 0 min 6 W/m 9,7 km/h (2 Bft) 100,00 %
07.08.2022 21:16 21,8 C 20,6 C 16,7 C 56 % 1023,1 hPa 0,0 l/m 0 min 0 min 2 W/m 6,4 km/h (2 Bft) 100,00 %
07.08.2022 21:18 21,7 C 20,6 C 16,7 C 56 % 1023,1 hPa 0,0 l/m 0 min 0 min 0 W/m 3,2 km/h (1 Bft) 100,00 %
07.08.2022 21:20 21,7 C 20,0 C 16,7 C 57 % 1023,1 hPa 0,0 l/m 0 min 0 min 0 W/m 6,4 km/h (2 Bft) 100,00 %
07.08.2022 21:22 21,6 C 20,0 C 16,7 C 56 % 1023,1 hPa 0,0 l/m 0 min 0 min 0 W/m 3,2 km/h (1 Bft) 100,00 %
07.08.2022 21:24 21,6 C 20,0 C 16,7 C 57 % 1023,2 hPa 0,0 l/m 0 min 0 min 0 W/m 3,2 km/h (1 Bft) 100,00 %
07.08.2022 21:26 21,6 C 20,0 C 16,7 C 57 % 1023,2 hPa 0,0 l/m 0 min 0 min 0 W/m 3,2 km/h (1 Bft) 100,00 %
07.08.2022 21:28 21,4 C 20,0 C 16,1 C 58 % 1023,1 hPa 0,0 l/m 0 min 0 min 0 W/m 3,2 km/h (1 Bft) 100,00 %
07.08.2022 21:30 21,4 C 20,0 C 16,1 C 58 % 1023,2 hPa 0,0 l/m 0 min 0 min 0 W/m 3,2 km/h (1 Bft) 100,00 %
07.08.2022 21:32 21,4 C 20,0 C 16,1 C 58 % 1023,2 hPa 0,0 l/m 0 min 0 min 0 W/m 0,0 km/h (0 Bft) 100,00 %
07.08.2022 21:34 21,3 C 19,4 C 16,1 C 59 % 1023,2 hPa 0,0 l/m 0 min 0 min 0 W/m 0,0 km/h (0 Bft) 100,00 %
07.08.2022 21:36 21,3 C 19,4 C 16,1 C 60 % 1023,3 hPa 0,0 l/m 0 min 0 min 0 W/m 3,2 km/h (1 Bft) 100,00 %
07.08.2022 21:38 21,2 C 19,4 C 15,6 C 60 % 1023,3 hPa 0,0 l/m 0 min 0 min 0 W/m 3,2 km/h (1 Bft) 100,00 %
07.08.2022 21:40 21,2 C 19,4 C 15,6 C 60 % 1023,3 hPa 0,0 l/m 0 min 0 min 0 W/m 0,0 km/h (0 Bft) 100,00 %
07.08.2022 21:42 21,1 C 19,4 C 15,6 C 60 % 1023,3 hPa 0,0 l/m 0 min 0 min 0 W/m 16,1 km/h (3 Bft) 100,00 %
07.08.2022 21:44 21,0 C 19,4 C 15,6 C 59 % 1023,3 hPa 0,0 l/m 0 min 0 min 0 W/m 6,4 km/h (2 Bft) 100,00 %
07.08.2022 21:46 20,9 C 19,4 C 15,6 C 59 % 1023,4 hPa 0,0 l/m 0 min 0 min 0 W/m 3,2 km/h (1 Bft) 100,00 %
07.08.2022 21:48 20,9 C 19,4 C 15,6 C 59 % 1023,4 hPa 0,0 l/m 0 min 0 min 0 W/m 6,4 km/h (2 Bft) 100,00 %
07.08.2022 21:50 20,8 C 19,4 C 15,6 C 59 % 1023,4 hPa 0,0 l/m 0 min 0 min 0 W/m 3,2 km/h (1 Bft) 100,00 %
07.08.2022 21:52 20,8 C 19,4 C 15,6 C 59 % 1023,4 hPa 0,0 l/m 0 min 0 min 0 W/m 3,2 km/h (1 Bft) 100,00 %
07.08.2022 21:54 20,7 C 19,4 C 15,6 C 60 % 1023,4 hPa 0,0 l/m 0 min 0 min 0 W/m 0,0 km/h (0 Bft) 97,87 %
07.08.2022 21:56 20,7 C 18,9 C 15,6 C 59 % 1023,4 hPa 0,0 l/m 0 min 0 min 0 W/m 0,0 km/h (0 Bft) 100,00 %
07.08.2022 21:58 20,6 C 18,9 C 15,6 C 59 % 1023,5 hPa 0,0 l/m 0 min 0 min 0 W/m 3,2 km/h (1 Bft) 100,00 %
07.08.2022 22:00 20,6 C 18,9 C 15,6 C 59 % 1023,4 hPa 0,0 l/m 0 min 0 min 0 W/m 3,2 km/h (1 Bft) 100,00 %
07.08.2022 22:02 20,5 C 18,9 C 15,6 C 59 % 1023,5 hPa 0,0 l/m 0 min 0 min 0 W/m 3,2 km/h (1 Bft) 100,00 %
07.08.2022 22:04 20,5 C 18,9 C 15,6 C 60 % 1023,5 hPa 0,0 l/m 0 min 0 min 0 W/m 3,2 km/h (1 Bft) 97,87 %
07.08.2022 22:06 20,4 C 18,9 C 15,6 C 60 % 1023,5 hPa 0,0 l/m 0 min 0 min 0 W/m 3,2 km/h (1 Bft) 97,87 %
07.08.2022 22:08 20,4 C 18,9 C 15,6 C 60 % 1023,5 hPa 0,0 l/m 0 min 0 min 0 W/m 3,2 km/h (1 Bft) 97,87 %
07.08.2022 22:10 20,4 C 18,9 C 15,6 C 60 % 1023,4 hPa 0,0 l/m 0 min 0 min 0 W/m 3,2 km/h (1 Bft) 95,74 %
07.08.2022 22:12 20,3 C 18,9 C 15,6 C 60 % 1023,5 hPa 0,0 l/m 0 min 0 min 0 W/m 0,0 km/h (0 Bft) 97,87 %
07.08.2022 22:14 20,3 C 18,9 C 15,6 C 60 % 1023,4 hPa 0,0 l/m 0 min 0 min 0 W/m 3,2 km/h (1 Bft) 97,83 %
07.08.2022 22:16 20,3 C 18,9 C 15,6 C 60 % 1023,5 hPa 0,0 l/m 0 min 0 min 0 W/m 0,0 km/h (0 Bft) 95,74 %
07.08.2022 22:18 20,3 C 18,9 C 15,6 C 60 % 1023,5 hPa 0,0 l/m 0 min 0 min 0 W/m 3,2 km/h (1 Bft) 95,74 %
07.08.2022 22:20 20,3 C 18,9 C 15,6 C 61 % 1023,5 hPa 0,0 l/m 0 min 0 min 0 W/m 3,2 km/h (1 Bft) 95,74 %
07.08.2022 22:22 20,2 C 18,9 C 15,0 C 61 % 1023,5 hPa 0,0 l/m 0 min 0 min 0 W/m 3,2 km/h (1 Bft) 95,74 %
07.08.2022 22:24 20,2 C 18,9 C 15,0 C 61 % 1023,5 hPa 0,0 l/m 0 min 0 min 0 W/m 6,4 km/h (2 Bft) 95,74 %
07.08.2022 22:26 20,1 C 18,9 C 15,0 C 61 % 1023,6 hPa 0,0 l/m 0 min 0 min 0 W/m 3,2 km/h (1 Bft) 93,48 %
07.08.2022 22:28 20,1 C 18,9 C 15,0 C 61 % 1023,6 hPa 0,0 l/m 0 min 0 min 0 W/m 3,2 km/h (1 Bft) 95,74 %
07.08.2022 22:30 20,1 C 18,9 C 15,0 C 61 % 1023,6 hPa 0,0 l/m 0 min 0 min 0 W/m 6,4 km/h (2 Bft) 93,62 %
07.08.2022 22:32 20,1 C 18,9 C 15,0 C 60 % 1023,6 hPa 0,0 l/m 0 min 0 min 0 W/m 3,2 km/h (1 Bft) 93,75 %
07.08.2022 22:34 20,0 C 18,9 C 15,0 C 61 % 1023,6 hPa 0,0 l/m 0 min 0 min 0 W/m 6,4 km/h (2 Bft) 93,62 %
07.08.2022 22:36 20,0 C 18,9 C 15,0 C 61 % 1023,6 hPa 0,0 l/m 0 min 0 min 0 W/m 3,2 km/h (1 Bft) 93,62 %
07.08.2022 22:38 19,9 C 18,9 C 15,0 C 61 % 1023,6 hPa 0,0 l/m 0 min 0 min 0 W/m 0,0 km/h (0 Bft) 91,49 %
07.08.2022 22:40 19,9 C 18,9 C 15,0 C 62 % 1023,6 hPa 0,0 l/m 0 min 0 min 0 W/m 3,2 km/h (1 Bft) 91,30 %
07.08.2022 22:42 19,8 C 18,3 C 15,0 C 62 % 1023,6 hPa 0,0 l/m 0 min 0 min 0 W/m 3,2 km/h (1 Bft) 93,62 %
07.08.2022 22:44 19,8 C 18,3 C 15,0 C 62 % 1023,6 hPa 0,0 l/m 0 min 0 min 0 W/m 3,2 km/h (1 Bft) 93,62 %
07.08.2022 22:46 19,8 C 18,3 C 15,0 C 63 % 1023,6 hPa 0,0 l/m 0 min 0 min 0 W/m 3,2 km/h (1 Bft) 91,49 %
07.08.2022 22:48 19,7 C 18,3 C 15,0 C 62 % 1023,6 hPa 0,0 l/m 0 min 0 min 0 W/m 6,4 km/h (2 Bft) 91,49 %
07.08.2022 22:50 19,7 C 18,3 C 15,0 C 62 % 1023,6 hPa 0,0 l/m 0 min 0 min 0 W/m 6,4 km/h (2 Bft) 95,65 %
07.08.2022 22:52 19,7 C 18,3 C 15,0 C 63 % 1023,6 hPa 0,0 l/m 0 min 0 min 0 W/m 3,2 km/h (1 Bft) 95,74 %
07.08.2022 22:54 19,6 C 18,3 C 15,0 C 63 % 1023,6 hPa 0,0 l/m 0 min 0 min 0 W/m 16,1 km/h (3 Bft) 95,74 %
07.08.2022 22:56 19,6 C 18,3 C 15,0 C 63 % 1023,6 hPa 0,0 l/m 0 min 0 min 0 W/m 6,4 km/h (2 Bft) 95,74 %
07.08.2022 22:58 19,5 C 18,3 C 15,0 C 63 % 1023,6 hPa 0,0 l/m 0 min 0 min 0 W/m 3,2 km/h (1 Bft) 95,74 %
07.08.2022 23:00 19,4 C 18,3 C 15,0 C 63 % 1023,6 hPa 0,0 l/m 0 min 0 min 0 W/m 6,4 km/h (2 Bft) 95,74 %
07.08.2022 23:02 19,4 C 18,3 C 15,0 C 63 % 1023,7 hPa 0,0 l/m 0 min 0 min 0 W/m 3,2 km/h (1 Bft) 93,62 %
07.08.2022 23:04 19,4 C 18,3 C 15,0 C 63 % 1023,7 hPa 0,0 l/m 0 min 0 min 0 W/m 6,4 km/h (2 Bft) 95,74 %
07.08.2022 23:06 19,4 C 18,3 C 15,0 C 63 % 1023,7 hPa 0,0 l/m 0 min 0 min 0 W/m 3,2 km/h (1 Bft) 97,87 %
07.08.2022 23:08 19,4 C 18,3 C 15,0 C 64 % 1023,7 hPa 0,0 l/m 0 min 0 min 0 W/m 3,2 km/h (1 Bft) 100,00 %
07.08.2022 23:10 19,3 C 18,3 C 15,0 C 64 % 1023,7 hPa 0,0 l/m 0 min 0 min 0 W/m 3,2 km/h (1 Bft) 100,00 %
07.08.2022 23:12 19,3 C 18,3 C 15,0 C 64 % 1023,7 hPa 0,0 l/m 0 min 0 min 0 W/m 3,2 km/h (1 Bft) 100,00 %
07.08.2022 23:14 19,3 C 18,3 C 15,0 C 64 % 1023,7 hPa 0,0 l/m 0 min 0 min 0 W/m 3,2 km/h (1 Bft) 100,00 %
07.08.2022 23:16 19,3 C 18,3 C 14,4 C 64 % 1023,7 hPa 0,0 l/m 0 min 0 min 0 W/m 3,2 km/h (1 Bft) 97,87 %
07.08.2022 23:18 19,3 C 18,3 C 14,4 C 64 % 1023,8 hPa 0,0 l/m 0 min 0 min 0 W/m 3,2 km/h (1 Bft) 100,00 %
07.08.2022 23:20 19,3 C 18,3 C 14,4 C 65 % 1023,7 hPa 0,0 l/m 0 min 0 min 0 W/m 6,4 km/h (2 Bft) 97,87 %
07.08.2022 23:22 19,3 C 18,3 C 14,4 C 65 % 1023,7 hPa 0,0 l/m 0 min 0 min 0 W/m 6,4 km/h (2 Bft) 100,00 %
07.08.2022 23:24 19,2 C 18,3 C 14,4 C 65 % 1023,8 hPa 0,0 l/m 0 min 0 min 0 W/m 9,7 km/h (2 Bft) 95,74 %
07.08.2022 23:26 19,2 C 18,3 C 14,4 C 65 % 1023,7 hPa 0,0 l/m 0 min 0 min 0 W/m 6,4 km/h (2 Bft) 100,00 %
07.08.2022 23:28 19,2 C 18,3 C 14,4 C 65 % 1023,7 hPa 0,0 l/m 0 min 0 min 0 W/m 6,4 km/h (2 Bft) 100,00 %
07.08.2022 23:30 19,2 C 18,3 C 14,4 C 65 % 1023,8 hPa 0,0 l/m 0 min 0 min 0 W/m 3,2 km/h (1 Bft) 100,00 %
07.08.2022 23:32 19,2 C 18,3 C 14,4 C 65 % 1023,8 hPa 0,0 l/m 0 min 0 min 0 W/m 9,7 km/h (2 Bft) 100,00 %
07.08.2022 23:34 19,1 C 18,3 C 14,4 C 66 % 1023,8 hPa 0,0 l/m 0 min 0 min 0 W/m 6,4 km/h (2 Bft) 100,00 %
07.08.2022 23:36 19,1 C 18,3 C 14,4 C 66 % 1023,8 hPa 0,0 l/m 0 min 0 min 0 W/m 12,9 km/h (3 Bft) 100,00 %
07.08.2022 23:38 19,1 C 18,3 C 14,4 C 65 % 1023,8 hPa 0,0 l/m 0 min 0 min 0 W/m 6,4 km/h (2 Bft) 100,00 %
07.08.2022 23:40 19,1 C 18,3 C 14,4 C 66 % 1023,7 hPa 0,0 l/m 0 min 0 min 0 W/m 3,2 km/h (1 Bft) 100,00 %
07.08.2022 23:42 19,1 C 18,3 C 14,4 C 66 % 1023,7 hPa 0,0 l/m 0 min 0 min 0 W/m 6,4 km/h (2 Bft) 95,74 %
07.08.2022 23:44 19,1 C 18,3 C 14,4 C 66 % 1023,7 hPa 0,0 l/m 0 min 0 min 0 W/m 3,2 km/h (1 Bft) 100,00 %
07.08.2022 23:46 19,0 C 17,8 C 14,4 C 66 % 1023,8 hPa 0,0 l/m 0 min 0 min 0 W/m 6,4 km/h (2 Bft) 100,00 %
07.08.2022 23:48 19,0 C 17,8 C 14,4 C 66 % 1023,9 hPa 0,0 l/m 0 min 0 min 0 W/m 6,4 km/h (2 Bft) 100,00 %
07.08.2022 23:50 19,0 C 17,8 C 14,4 C 66 % 1023,9 hPa 0,0 l/m 0 min 0 min 0 W/m 3,2 km/h (1 Bft) 100,00 %
07.08.2022 23:52 18,9 C 17,8 C 14,4 C 66 % 1023,9 hPa 0,0 l/m 0 min 0 min 0 W/m 6,4 km/h (2 Bft) 100,00 %
07.08.2022 23:54 18,9 C 17,8 C 14,4 C 66 % 1023,8 hPa 0,0 l/m 0 min 0 min 0 W/m 6,4 km/h (2 Bft) 100,00 %
07.08.2022 23:56 18,9 C 17,8 C 14,4 C 66 % 1023,9 hPa 0,0 l/m 0 min 0 min 0 W/m 3,2 km/h (1 Bft) 100,00 %
07.08.2022 23:58 18,9 C 17,8 C 14,4 C 66 % 1023,9 hPa 0,0 l/m 0 min 0 min 0 W/m 9,7 km/h (2 Bft) 100,00 %
_ Min-Zeit 07:02 05:42 05:08 15:18 19:00 - - - - 00:00 00:02
Minimum _ 11,5 C 10,6 C 7,8 C 41 % 1022,4 hPa - - - - 0,0 km/h (0 Bft) 12,50 %
_ Max-Zeit 16:22 16:46 12:30 08:36 00:00 00:00 12:08 00:00 13:36 17:50 00:00
Maximum _ 26,8 C 32,8 C 26,7 C 94 % 1027,0 hPa 0,0 l/m 4 min 0 min 898 W/m 29,0 km/h
W-NW (5 Bft)
100,00 %
Durchschnitt _ 19,5 C 20,5 C 15,1 C 65 % 1024,7 hPa #0,0 l/m #11:18 h #0 min. 484 W/m 6,3 km/h (2 Bft) 97,49 %
© 2022 W. Hausmann